GFSFLT2_prec_cloud_003.txt.gz
Cloud_Cover
100 100 100 99 5 0 0 0 0 0 0 1 1 0 0 0 0 0 0 0 0 0 0 0 0 0 0 0 0 0 0 46
100 100 100 58 0 6 0 0 0 0 0 0 0 0 0 0 0 0 0 0 0 0 0 0 0 0 0 0 0 0 4 2
100 98 4 0 0 3 21 6 1 8 2 1 0 0 0 3 0 0 0 0 0 0 0 0 0 0 0 0 0 0 0 2
100 86 3 0 0 0 0 0 0 0 4 0 8 3 0 0 8 0 0 0 0 0 0 0 0 0 0 0 0 0 0 1
92 3 0 0 0 0 0 0 0 0 0 0 0 0 15 7 29 20 33 0 0 0 0 0 0 0 0 0 0 2 0 0
0 0 0 0 0 0 0 0 0 0 0 0 0 0 0 0 0 0 0 8 0 0 1 0 0 0 0 0 0 0 2 5
70 0 0 0 0 0 0 0 1 2 0 0 0 0 0 0 0 0 0 0 2 0 0 0 0 0 0 0 0 0 2 2
42 90 0 0 0 1 0 2 5 5 5 5 0 4 2 0 0 0 0 2 0 0 0 0 0 0 0 0 0 0 0 0
100 100 1 0 0 2 5 5 5 5 5 5 5 5 5 10 5 6 15 5 5 5 5 4 5 0 0 0 0 0 0 1
79 98 6 0 0 4 5 5 5 5 5 5 5 5 5 12 59 55 94 100 90 60 44 38 5 5 4 0 0 0 0 0
57 47 0 0 5 5 5 5 5 5 16 5 5 5 5 27 82 91 80 13 5 5 5 4 5 4 24 5 13 4 5 4
0 71 0 5 11 76 66 64 10 26 98 100 72 48 40 6 5 5 5 5 4 4 2 6 68 98 69 99 87 92 28 24
58 93 5 73 97 97 100 62 77 100 88 7 72 82 98 30 5 5 5 4 4 9 77 36 16 6 5 8 13 16 14 17
5 29 43 98 76 100 100 91 95 90 88 100 100 80 18 78 80 5 5 22 79 8 5 27 15 5 5 33 81 68 90 81
25 48 74 100 100 73 48 99 76 100 98 79 52 64 100 97 94 26 23 6 13 12 5 5 5 5 5 5 12 5 12 48
100 100 96 73 99 53 100 100 96 68 99 80 92 100 100 100 96 5 5 5 5 5 5 31 44 5 51 84 5 31 8 29
100 55 5 44 84 100 100 94 99 100 100 100 99 89 37 16 5 1 8 30 58 74 96 71 86 77 12 5 4 5 5 93
78 84 88 100 99 86 100 100 100 85 40 5 5 12 14 40 97 100 100 100 100 100 100 90 47 35 75 89 100 81 69 92
41 100 96 88 84 89 55 18 30 9 35 86 100 100 100 100 100 100 100 100 76 87 100 99 100 52 70 78 99 79 85 100
80 75 87 98 94 71 64 6 94 95 100 100 100 100 100 86 6 8 5 71 99 100 97 38 84 90 64 100 75 49 77 100

GFSFLT2_prec_cloud_006.txt.gz
Cloud_Cover
100 100 100 100 100 100 100 100 95 15 0 0 0 0 0 0 0 0 0 0 0 0 0 0 0 0 0 0 0 0 0 0
100 100 100 100 100 100 100 97 2 2 0 0 0 0 0 0 0 0 0 0 0 0 0 0 0 0 0 0 0 0 0 0
100 100 100 100 100 100 32 12 0 0 0 0 1 30 80 33 0 0 0 0 0 0 0 0 0 0 0 0 0 0 0 0
100 100 100 100 100 68 21 5 0 0 0 0 66 12 73 10 15 0 0 0 0 0 0 0 0 0 0 0 0 0 0 0
100 100 100 100 14 13 1 0 0 0 0 0 0 0 16 0 8 0 0 0 0 0 0 0 0 0 0 0 0 0 0 0
100 100 100 51 5 0 0 0 0 0 0 0 0 0 0 0 0 0 0 0 0 0 0 0 0 0 0 0 0 0 0 0
100 69 62 5 0 0 0 0 0 0 0 0 0 0 0 0 0 0 0 0 0 0 0 0 1 0 0 0 0 0 0 0
55 25 97 10 0 0 0 0 0 0 0 0 0 1 0 0 0 0 0 0 0 4 3 2 0 0 0 0 0 0 0 0
88 100 100 92 0 0 0 0 0 0 0 5 5 5 5 5 3 0 4 5 6 5 5 0 1 0 2 0 0 0 0 0
100 100 100 100 0 0 0 0 3 5 5 5 0 4 5 5 3 5 5 5 5 5 17 31 5 5 2 0 0 3 3 3
100 100 100 77 94 0 0 2 5 6 62 6 5 5 5 5 39 5 5 5 5 3 2 2 0 0 4 5 9 5 5 5
0 26 5 7 90 5 2 5 5 72 82 5 5 67 5 5 5 5 18 46 5 3 4 4 5 5 5 41 10 48 9 5
0 0 12 98 27 5 5 48 98 54 90 40 17 89 16 81 19 50 87 28 5 5 2 5 5 5 13 59 83 99 56 74
2 1 18 70 12 15 93 100 23 46 58 35 84 5 18 100 96 48 88 98 91 5 0 0 0 1 0 2 23 37 32 69
40 63 100 100 38 50 41 5 46 73 77 100 89 72 52 55 69 12 4 0 15 0 2 7 5 53 63 69 47 54 55 64
100 83 98 100 99 15 5 88 100 84 91 5 5 5 64 40 44 5 5 5 5 5 5 5 5 4 5 3 4 7 35 27
97 64 84 5 6 98 88 36 84 61 37 81 99 100 93 100 63 24 7 8 65 96 59 94 97 19 5 6 5 5 5 14
100 75 5 5 5 84 67 87 100 100 100 100 100 100 100 100 100 100 100 100 100 82 16 6 75 68 84 98 60 9 33 100
15 96 99 74 74 99 100 100 100 100 100 100 100 100 100 100 100 100 38 29 46 29 64 100 100 78 21 5 43 7 5 100
72 100 100 100 100 53 83 100 100 100 100 89 34 70 93 94 66 10 5 10 7 80 48 82 63 5 62 100 18 5 64 8

GFSFLT2_prec_cloud_012.txt.gz
Cloud_Cover
59 100 99 87 97 96 98 100 100 100 100 100 100 100 100 100 17 58 0 0 0 0 0 0 0 0 0 0 0 0 0 0
46 70 99 96 90 100 100 100 100 100 100 100 100 100 99 98 62 3 0 0 0 0 0 0 0 0 0 0 0 0 0 0
93 99 100 100 100 100 100 100 100 100 100 100 100 100 92 14 1 0 0 0 0 0 0 0 0 0 0 0 0 0 0 0
100 100 100 100 100 100 100 100 100 100 100 100 100 20 9 1 3 0 0 0 0 0 0 0 0 0 0 0 0 0 0 0
100 100 100 100 100 100 100 100 100 100 100 100 68 24 12 36 5 5 0 0 0 0 0 0 0 0 0 0 0 0 0 0
100 100 100 100 100 100 100 100 100 100 100 86 100 100 95 52 5 5 0 0 0 0 0 0 0 0 0 0 1 0 0 0
100 100 100 100 100 100 100 100 100 100 100 100 100 100 29 63 7 5 0 1 0 0 0 0 0 0 0 0 0 5 2 0
100 100 100 100 100 100 100 100 100 100 99 89 74 66 43 39 82 5 0 5 5 5 5 2 3 5 4 4 0 0 0 2
100 100 100 100 100 100 100 100 99 100 100 100 74 43 89 54 3 5 5 5 5 0 4 5 5 5 5 5 5 5 5 0
73 47 12 12 16 47 97 99 100 100 100 100 100 100 6 2 1 0 4 2 1 4 2 0 1 5 5 5 5 5 5 5
18 85 100 52 5 8 5 24 100 99 14 28 17 10 5 5 5 5 6 31 5 0 0 0 5 5 5 5 5 5 5 8
93 99 49 81 67 65 12 5 6 5 13 5 5 7 74 94 96 34 58 7 5 0 0 0 5 5 5 5 38 94 91 96
5 87 100 100 54 96 4 4 17 26 66 79 100 95 56 73 29 5 5 5 0 0 0 0 0 4 5 5 80 100 100 100
86 79 39 20 5 5 10 47 94 89 98 87 22 66 82 45 70 62 5 5 5 5 2 0 0 0 0 0 2 5 5 23
0 1 3 76 88 86 81 94 100 95 81 74 100 97 40 4 4 3 5 5 7 6 5 5 5 3 0 0 3 4 4 39
0 2 5 5 45 95 100 99 100 82 6 35 22 52 19 27 10 23 44 14 5 5 5 7 5 5 5 5 17 20 6 5
0 4 12 99 100 100 100 100 62 46 85 100 100 100 100 93 100 100 97 62 5 5 0 0 3 5 70 51 83 9 5 5
29 11 5 67 77 99 100 97 75 77 99 100 100 74 58 13 98 100 85 41 75 77 1 7 54 98 100 100 97 100 100 60
86 92 88 85 65 18 4 5 5 43 91 100 98 100 98 44 82 44 20 6 0 0 0 1 6 14 30 100 88 100 100 100
98 95 94 94 44 5 5 59 100 100 100 50 93 72 68 4 5 5 0 0 0 0 0 0 0 5 5 8 68 92 91 100

GFSFLT2_prec_cloud_015.txt.gz
Cloud_Cover
93 100 98 100 100 100 100 100 95 100 100 100 100 100 91 100 100 100 100 84 10 2 0 0 0 0 0 0 0 0 0 0
100 100 100 100 100 100 100 100 100 100 100 100 100 100 100 93 100 70 96 95 4 3 0 0 0 0 0 0 0 0 0 0
100 100 100 100 95 100 100 100 100 100 100 100 100 100 100 100 100 100 67 2 2 5 0 0 0 0 0 0 0 0 0 0
95 100 100 100 100 100 100 100 100 100 100 100 100 75 100 100 100 39 7 4 5 5 5 0 0 0 0 0 0 0 0 0
100 100 100 100 100 100 100 100 100 100 100 100 100 100 100 69 61 91 21 4 5 5 5 0 0 0 0 0 0 0 0 0
100 100 100 100 100 100 100 100 100 100 100 100 100 100 100 42 14 5 21 5 14 19 5 5 5 1 0 0 0 3 0 0
100 100 100 100 100 100 100 100 100 100 100 100 73 24 55 37 64 43 87 86 100 53 5 5 5 0 0 0 0 0 1 0
100 100 100 100 100 100 100 100 100 100 93 75 98 100 100 100 100 100 91 100 100 10 5 0 5 0 0 0 0 0 0 0
100 100 91 60 86 58 100 100 8 31 100 100 88 97 100 99 100 100 100 60 3 4 4 0 0 5 4 0 3 2 0 0
97 100 100 100 100 100 100 100 87 59 8 0 5 5 5 5 5 5 5 5 4 5 2 0 0 0 0 1 4 4 0 0
82 100 100 100 100 100 100 100 77 90 5 5 5 5 11 72 35 16 47 5 5 5 2 0 0 0 0 0 0 0 0 0
100 100 100 100 100 100 100 100 38 33 5 5 56 59 74 98 88 74 6 5 4 0 0 0 0 0 1 5 5 5 5 5
100 100 100 100 70 100 77 76 59 29 5 92 100 98 99 43 5 5 5 5 3 0 0 0 0 0 0 0 5 5 5 5
61 20 36 99 100 50 16 41 26 96 100 48 22 64 5 5 5 4 1 0 5 5 5 5 5 5 4 0 1 5 5 5
3 9 2 6 0 5 17 56 30 24 23 14 24 5 2 2 4 4 4 6 26 5 22 29 12 4 2 0 9 6 6 4
19 23 0 0 5 5 44 99 97 43 6 4 0 1 5 9 59 14 81 100 98 100 99 19 5 13 1 0 2 18 55 24
0 0 5 5 5 44 91 100 100 97 72 31 76 100 100 100 17 100 100 100 37 75 0 3 2 5 77 100 100 84 100 95
2 0 1 5 5 5 5 5 3 23 68 35 23 100 5 14 7 28 22 5 13 0 0 0 0 0 0 5 60 93 99 100
4 12 42 5 5 5 5 5 5 5 11 21 25 5 5 5 5 5 5 5 4 5 3 2 0 0 0 15 1 5 19 60
5 5 13 5 5 5 5 5 5 3 0 6 10 5 4 5 6 23 50 45 96 60 96 91 5 65 94 1 0 0 5 5

GFSFLT2_prec_cloud_018.txt.gz
Cloud_Cover
78 100 98 100 100 100 100 76 100 100 53 81 60 62 88 85 56 99 100 18 32 33 5 5 0 0 0 0 0 0 0 0
100 100 100 100 100 100 100 97 100 100 100 14 100 100 100 100 100 100 92 5 18 42 9 3 0 0 0 0 0 0 0 0
100 100 100 93 100 100 100 100 100 100 100 100 100 100 100 100 100 100 100 74 70 36 5 1 1 3 0 0 0 0 0 0
100 100 100 100 100 100 100 100 100 100 100 100 100 100 100 100 96 69 69 5 16 4 0 1 0 0 2 5 0 0 0 0
100 100 100 100 100 100 100 100 100 100 100 100 100 100 100 100 92 52 6 5 5 1 13 5 3 3 5 15 0 0 0 0
100 100 96 100 100 100 100 100 100 100 100 100 100 100 100 100 68 48 14 100 39 100 56 5 5 5 5 0 0 0 0 0
100 100 100 100 100 100 100 100 100 100 100 92 100 93 41 82 6 35 100 88 86 13 48 71 0 0 0 0 0 0 0 0
100 100 100 100 100 100 100 100 100 99 70 48 98 97 13 6 14 18 5 5 4 2 2 0 0 0 0 0 0 0 0 0
100 100 100 100 100 100 100 100 100 100 100 80 71 11 5 5 5 5 5 5 5 5 5 5 1 0 0 0 3 1 0 0
88 51 100 100 100 100 100 100 100 100 100 94 84 100 25 62 5 28 79 97 15 12 5 5 5 0 0 1 5 5 5 5
73 98 100 100 100 100 100 100 100 100 97 90 100 93 31 97 21 87 88 65 35 5 5 5 0 0 0 0 3 5 5 1
75 100 100 100 100 100 54 83 100 100 100 100 98 96 97 100 24 5 8 5 5 5 4 1 0 0 0 0 0 0 0 0
100 100 100 100 100 100 100 100 100 100 23 18 96 96 70 5 5 5 32 5 2 0 2 5 5 5 5 5 3 4 5 5
88 63 80 41 25 76 66 62 10 5 5 5 5 5 5 5 7 4 1 1 2 6 97 33 5 4 2 5 4 4 4 4
39 5 5 5 5 2 5 5 5 5 5 5 2 1 0 1 4 5 5 5 5 10 5 5 5 2 3 6 22 2 30 3
47 7 8 5 5 5 65 55 5 2 0 0 0 4 5 5 48 46 42 6 5 3 0 0 0 5 0 1 20 71 100 93
88 97 26 5 5 53 33 5 2 0 0 0 6 30 78 72 68 6 0 4 3 4 1 0 0 0 0 0 2 25 7 98
100 100 53 18 10 4 4 2 4 5 2 26 39 24 3 0 2 5 5 6 54 5 5 5 5 1 0 0 18 65 5 31
8 5 44 23 5 5 5 5 2 0 0 0 0 0 0 0 4 5 5 42 26 12 49 64 31 50 60 5 54 92 2 1
5 5 17 8 27 5 4 0 0 0 0 0 2 5 5 5 5 5 5 5 26 63 96 99 65 99 100 100 94 50 37 15

GFSFLT2_prec_cloud_021.txt.gz
Cloud_Cover
100 100 100 100 100 99 78 100 98 80 95 100 59 94 100 94 95 41 5 100 12 97 100 9 10 4 0 0 0 0 0 0
100 100 100 100 100 100 100 100 99 97 100 100 100 100 100 100 100 99 40 21 100 79 73 5 68 5 0 0 0 0 0 0
100 100 100 100 100 100 100 100 100 67 100 100 100 100 100 100 100 100 100 100 10 6 5 0 0 0 0 2 5 2 0 0
100 100 100 100 100 100 100 100 98 100 100 100 100 100 100 100 98 100 92 53 5 5 5 3 3 6 6 1 3 0 0 0
100 100 100 100 100 99 100 100 100 100 100 100 100 100 100 92 81 99 84 56 7 2 1 6 48 5 0 0 0 0 0 0
100 100 100 100 100 100 100 100 100 100 100 100 100 97 98 49 95 56 16 5 4 0 5 0 0 0 0 0 0 0 0 0
100 98 100 100 100 100 100 100 100 100 100 98 94 92 5 5 5 4 24 31 5 5 5 2 1 0 0 0 0 0 0 0
72 97 94 100 100 100 100 100 100 100 100 100 100 100 67 64 28 8 76 18 34 6 13 5 5 5 0 0 0 0 0 0
71 81 100 100 100 100 100 100 100 100 100 100 100 100 100 66 65 100 100 96 19 5 38 5 5 5 1 0 0 0 0 0
97 94 100 100 100 100 100 100 100 100 100 100 100 100 100 100 96 100 100 99 5 5 31 5 5 5 5 5 5 0 0 0
82 100 100 100 100 100 100 100 100 100 100 100 100 100 100 100 100 100 84 2 3 2 2 5 5 5 5 4 2 0 0 0
42 100 100 100 100 100 100 100 100 100 100 100 100 100 93 28 11 5 0 0 0 0 2 2 0 5 5 5 5 0 0 0
100 100 88 100 100 100 100 100 100 100 100 100 95 80 5 5 5 5 5 0 0 1 5 5 2 0 0 0 0 0 3 5
45 90 100 100 100 87 5 5 13 26 13 38 1 0 2 0 0 4 5 19 70 21 4 0 0 0 0 0 0 0 4 1
5 17 10 5 90 66 5 5 4 5 4 0 0 0 2 1 5 5 5 4 1 0 4 5 5 2 0 1 0 0 5 0
94 75 38 62 65 21 76 40 40 0 0 0 0 0 0 5 4 5 5 0 2 3 0 0 0 0 1 3 5 5 5 5
89 78 23 62 77 47 3 0 0 0 0 0 0 0 0 0 2 0 0 0 0 5 3 5 5 11 5 5 5 5 16 100
8 5 5 5 5 5 22 5 2 1 4 2 3 0 0 0 0 0 0 1 6 83 84 56 40 16 5 12 68 11 5 65
5 5 5 12 28 5 5 5 26 5 10 5 5 0 0 0 2 5 6 80 100 100 51 5 5 5 5 61 17 5 3 5
5 5 5 5 5 38 13 5 37 36 18 5 0 3 5 46 54 5 42 100 83 49 6 5 5 5 5 5 0 0 4 0

GFSFLT2_prec_cloud_024.txt.gz
Cloud_Cover
100 100 100 100 100 100 100 100 100 100 100 100 81 100 91 97 29 100 100 48 100 100 100 100 27 94 24 5 4 0 0 0
100 100 100 100 100 100 100 100 100 100 100 100 100 100 98 25 72 99 72 100 86 99 100 100 100 100 92 5 0 0 0 0
100 100 100 99 100 100 100 100 100 100 100 100 100 100 100 100 94 44 99 100 97 89 70 98 11 5 5 0 0 0 3 1
100 100 100 100 100 100 100 100 100 100 100 100 100 96 100 100 58 38 88 29 6 91 25 5 5 0 0 0 0 0 0 0
100 100 100 100 100 100 100 100 100 100 100 100 100 80 100 30 6 5 12 5 28 8 1 2 0 0 0 0 0 0 0 0
100 100 100 100 100 100 100 100 100 100 100 100 78 79 82 12 8 5 5 5 5 5 3 4 0 0 0 0 0 0 0 0
100 100 100 100 100 100 98 100 100 100 100 96 100 100 100 100 99 100 98 91 9 5 5 22 3 5 2 2 0 0 0 0
100 100 100 100 95 93 65 98 100 100 100 100 100 100 100 100 90 94 94 100 41 35 87 100 100 61 27 0 0 0 0 0
94 94 79 29 75 100 100 100 100 100 100 100 100 100 100 100 100 88 96 100 100 94 100 100 99 6 0 0 2 1 0 0
99 83 100 100 100 100 100 100 100 100 100 100 100 100 100 100 100 100 100 100 100 100 100 96 5 0 0 0 5 5 5 1
66 85 89 100 100 100 100 100 100 100 100 100 100 100 100 100 100 100 100 100 100 100 34 3 0 0 1 0 0 0 1 3
92 95 100 99 100 100 100 100 100 100 100 100 100 100 99 100 100 100 100 100 76 4 0 2 2 5 3 0 0 0 0 2
100 100 100 100 99 100 100 100 100 100 100 100 100 100 100 100 100 29 0 0 0 4 2 0 0 4 3 0 0 0 5 7
67 62 36 7 22 95 99 100 66 77 66 15 17 18 27 5 5 4 0 0 0 1 5 4 2 5 5 5 7 17 4 99
87 45 16 5 82 100 23 0 0 0 2 0 0 1 2 0 0 0 0 0 0 0 1 4 5 5 5 4 3 2 4 3
43 5 4 10 5 2 0 3 4 5 6 41 5 5 5 5 0 0 0 0 0 5 5 5 5 4 5 5 5 12 80 57
5 4 0 0 5 5 5 7 96 82 35 8 63 47 5 5 0 0 5 5 5 5 5 67 6 5 5 5 70 96 100 100
5 0 0 4 5 5 26 77 68 94 100 84 8 8 4 5 4 4 2 2 5 5 48 80 63 27 43 99 100 100 100 100
2 3 5 5 5 25 47 100 100 69 11 29 52 3 0 0 2 5 5 5 6 70 90 100 100 99 98 100 100 100 100 100
5 5 5 9 95 99 99 100 85 94 93 4 2 5 9 48 9 5 5 6 93 79 100 100 100 100 100 100 100 100 100 100

GFSFLT2_prec_cloud_027.txt.gz
Cloud_Cover
100 100 100 100 100 100 100 100 100 100 100 100 100 100 100 100 99 100 100 100 92 7 44 63 11 70 51 26 23 6 5 0
100 100 100 100 100 100 100 100 100 100 100 100 100 100 100 100 100 100 100 89 33 94 5 6 5 5 39 81 5 0 0 4
100 100 100 100 100 100 100 100 100 100 100 100 100 100 100 100 100 100 100 100 89 5 16 5 5 5 5 5 4 5 0 0
100 100 100 100 100 100 100 100 100 100 100 100 100 100 100 100 46 77 100 87 12 5 6 4 2 4 6 5 0 0 0 0
100 100 100 100 100 100 100 100 100 100 100 100 100 100 100 100 95 92 18 5 24 5 39 6 5 2 0 0 0 0 0 1
100 100 100 100 100 100 100 100 100 100 100 100 100 100 100 63 98 98 96 43 46 70 35 70 18 5 5 19 34 6 8 22
100 100 100 100 100 100 100 100 100 100 100 100 100 100 100 100 85 64 84 100 91 58 24 15 100 100 98 95 100 96 100 96
100 100 100 100 100 100 100 100 100 100 100 96 97 67 100 100 100 100 100 100 97 91 70 82 100 100 100 100 100 100 65 5
100 100 100 100 100 100 100 100 100 100 100 100 100 100 100 100 100 100 100 100 100 100 100 100 85 87 84 29 94 5 5 5
71 58 89 97 73 100 100 100 100 100 100 100 100 100 100 100 100 100 100 100 100 87 100 97 92 76 100 95 5 0 0 0
97 100 100 87 87 100 100 100 100 100 100 100 100 100 100 100 100 74 56 78 95 99 73 22 34 25 3 0 0 0 0 0
100 100 100 97 68 91 100 100 100 100 100 100 96 31 10 87 94 86 30 22 16 5 9 5 0 0 0 1 0 0 0 4
100 100 100 62 82 91 95 99 100 80 100 100 100 20 21 96 100 100 100 82 28 58 1 3 0 0 0 2 0 0 5 5
100 100 98 87 65 87 78 23 0 3 5 7 55 20 18 23 42 47 5 8 0 0 3 4 0 0 0 5 5 5 5 4
63 74 95 57 96 22 6 1 1 5 16 59 94 21 6 69 65 65 44 19 0 0 5 5 5 5 5 5 5 4 4 2
55 61 97 37 0 0 4 10 67 44 33 10 19 43 83 33 4 6 0 2 5 5 5 5 5 5 5 5 35 28 13 5
96 35 32 2 0 5 5 14 7 12 27 91 82 48 5 5 3 2 1 4 2 5 5 5 6 82 95 5 13 48 53 100
12 2 0 0 0 5 5 5 5 5 60 100 80 46 45 42 62 1 0 3 5 5 54 80 100 88 28 81 98 96 99 100
3 5 0 0 3 5 5 5 54 43 92 50 5 55 70 84 35 5 5 5 5 5 18 92 66 74 93 100 39 88 88 100
5 3 0 0 5 5 8 40 49 98 75 5 5 60 99 6 5 5 5 5 5 36 51 90 36 7 30 100 95 97 100 100

GFSFLT2_prec_cloud_030.txt.gz
Cloud_Cover
100 100 100 100 100 100 100 100 100 100 100 100 100 100 100 100 100 100 100 100 100 100 100 100 100 93 17 5 5 1 2 3
100 100 100 100 100 100 100 100 100 100 100 100 100 100 100 100 100 100 100 98 68 100 100 94 6 6 26 5 0 1 0 0
100 100 100 100 100 100 100 100 100 100 100 100 100 100 100 100 100 100 100 99 100 76 54 5 78 5 3 0 4 4 0 0
100 100 100 100 100 100 100 100 100 100 100 100 100 100 100 100 92 100 100 100 100 74 18 62 5 4 3 3 5 3 0 0
100 100 100 100 100 100 100 100 100 100 100 100 100 100 100 96 97 99 98 93 100 95 100 70 5 4 4 0 4 0 2 0
100 100 100 100 100 100 100 100 100 100 100 100 100 100 100 100 97 79 100 92 65 43 49 89 54 99 71 97 100 100 41 100
100 100 100 100 100 100 100 100 100 100 100 100 100 100 100 80 84 64 100 58 89 100 79 43 82 77 47 25 100 100 100 39
100 100 100 100 100 100 100 100 100 100 100 100 100 99 94 99 72 100 99 99 86 100 98 92 100 100 100 100 100 100 100 85
100 100 100 100 100 100 100 100 100 100 100 100 100 100 100 100 100 63 100 100 100 92 100 82 100 100 10 14 8 59 84 43
100 100 100 100 100 100 100 100 100 100 100 100 100 99 99 100 100 100 100 100 100 89 42 5 40 37 95 27 5 5 2 0
100 100 100 100 100 100 100 98 100 100 100 97 96 100 100 100 86 90 100 100 95 76 5 5 5 0 0 1 0 0 0 0
100 100 100 100 100 100 94 89 100 99 99 71 37 18 91 87 60 37 96 100 88 94 8 5 3 0 0 0 0 0 2 0
100 45 14 66 79 72 100 100 100 45 17 9 4 1 0 0 0 1 4 41 5 0 0 0 0 0 0 0 0 0 0 0
59 100 94 57 42 8 5 25 18 7 0 3 4 5 5 5 5 34 5 1 5 4 0 0 0 0 0 0 4 3 0 0
56 100 13 5 5 5 90 6 0 0 0 0 5 26 64 7 26 27 5 5 5 1 0 0 0 0 0 4 3 5 4 0
53 22 5 5 70 87 36 0 0 2 26 0 5 29 72 78 15 4 5 5 1 0 0 3 1 2 4 5 1 10 6 5
64 31 24 94 1 57 0 93 99 14 5 24 83 89 91 5 0 5 5 5 0 0 5 5 5 5 5 5 5 5 5 5
26 70 92 2 0 8 0 0 5 5 13 100 100 92 6 3 4 5 5 0 1 0 2 16 16 5 4 3 5 12 30 48
57 8 0 0 0 0 0 5 5 5 13 5 66 62 57 16 5 5 4 5 5 5 5 5 10 5 5 5 11 6 100 95
0 0 0 0 0 5 5 5 5 7 6 20 98 100 100 28 5 54 35 69 5 14 16 24 5 5 15 5 86 98 100 100

GFSFLT2_prec_cloud_033.txt.gz
Cloud_Cover
100 100 100 100 100 100 100 100 100 100 100 100 100 100 100 100 100 100 100 100 100 100 100 100 100 100 100 37 31 100 42 12
100 100 100 100 100 100 100 100 100 100 100 100 100 100 100 100 100 100 100 100 100 100 100 98 100 98 58 93 2 5 26 62
100 100 100 100 100 100 100 100 100 100 100 100 100 100 100 100 100 100 100 100 100 92 59 100 100 100 100 7 8 94 92 5
100 100 100 100 100 100 100 100 100 100 100 100 100 100 100 100 100 100 100 100 99 100 100 81 91 64 78 53 70 4 2 3
100 100 100 100 100 100 100 100 100 100 100 100 100 100 100 100 100 100 100 100 100 99 100 59 79 100 5 13 3 2 0 0
100 100 100 100 100 100 100 100 100 100 100 100 100 100 100 100 100 100 100 100 100 100 100 65 100 100 100 100 71 82 100 99
100 100 100 100 100 100 100 100 100 100 100 100 100 100 100 100 100 100 100 100 100 100 100 100 91 98 94 20 100 100 19 44
100 100 100 100 100 100 100 100 100 100 100 100 100 100 100 100 100 100 100 100 100 100 100 100 58 58 96 60 80 53 34 2
100 100 100 100 100 100 100 100 100 100 100 100 100 100 100 100 100 100 100 100 100 100 100 93 99 79 79 91 100 7 5 1
100 100 100 100 100 100 100 100 100 100 100 100 100 100 100 100 100 100 100 21 23 21 5 3 2 0 0 0 0 0 0 0
100 100 100 100 100 100 100 100 100 100 100 100 100 100 98 100 100 69 11 43 28 5 0 0 0 0 0 0 0 0 0 0
100 100 100 100 100 100 100 100 100 100 100 93 100 100 100 100 57 40 20 5 4 0 0 0 0 0 0 0 0 0 0 0
100 100 100 100 100 100 100 100 100 100 100 100 85 100 87 74 36 32 5 5 5 0 0 0 0 0 0 0 0 0 0 0
69 63 98 100 100 100 99 100 34 7 14 12 18 59 61 15 5 23 5 12 0 0 0 0 0 0 0 0 0 0 0 0
81 63 14 10 19 93 100 17 21 21 12 5 5 5 5 5 5 5 5 3 0 0 0 0 0 0 0 0 1 0 0 0
54 19 10 5 15 29 9 5 4 0 0 2 5 24 12 5 5 5 5 5 55 2 0 0 0 0 0 4 0 2 5 3
7 5 5 10 7 4 2 0 0 0 0 0 5 5 3 5 5 38 100 90 93 5 5 5 5 5 5 23 52 4 2 1
5 4 0 3 2 6 48 12 0 0 0 5 24 62 89 46 24 100 100 97 25 0 0 2 5 5 41 99 24 5 6 28
0 0 0 0 5 0 0 0 0 0 47 54 80 99 82 73 94 100 100 5 5 5 5 5 5 5 5 9 5 9 76 90
0 0 0 0 0 2 1 0 0 2 5 11 41 85 97 14 100 100 21 5 5 21 86 74 35 48 62 13 9 5 5 65

GFSFLT2_prec_cloud_036.txt.gz
Cloud_Cover
100 100 100 100 100 100 100 100 100 100 100 100 100 100 100 99 100 100 100 100 100 100 95 90 100 100 100 100 100 100 100 73
100 100 100 100 100 100 100 100 100 100 100 100 94 100 100 100 100 100 100 99 93 100 100 100 100 100 100 100 100 100 16 30
100 100 100 100 100 100 100 100 100 100 100 94 100 100 100 100 100 100 100 100 100 100 100 100 100 100 43 38 90 47 38 14
100 100 100 100 100 100 100 100 100 100 100 100 100 100 100 100 100 100 100 100 100 100 100 100 100 100 100 100 78 93 5 88
100 100 100 100 100 100 100 100 100 100 100 100 100 100 100 100 100 100 100 100 100 100 100 100 100 100 100 86 67 98 100 23
100 100 100 100 100 100 100 100 100 100 100 100 100 100 100 100 100 100 100 100 100 100 100 100 100 100 100 100 100 100 100 100
100 100 100 100 100 100 100 100 100 100 100 100 100 100 99 100 100 99 98 100 100 96 100 100 100 100 100 100 11 8 5 6
100 100 100 100 100 100 100 100 100 100 100 100 100 100 100 100 100 100 100 100 100 100 100 100 100 99 98 9 5 5 1 1
100 100 100 100 100 100 100 100 100 100 100 100 100 100 100 100 100 100 100 100 100 100 100 100 100 96 22 64 5 5 0 0
100 100 100 100 100 100 100 100 100 100 100 100 100 100 100 100 100 100 100 100 100 100 100 94 5 81 5 4 0 0 0 0
100 100 100 100 100 100 100 100 100 100 100 100 100 100 100 100 100 100 100 100 100 86 12 42 6 5 0 0 0 0 0 0
100 100 100 100 100 100 100 100 100 100 100 100 100 100 100 100 100 100 100 100 44 29 5 5 3 0 0 0 0 0 0 0
100 100 100 100 100 100 100 100 100 100 100 100 100 100 100 100 100 81 17 11 42 5 5 0 4 5 0 0 0 0 0 0
94 80 70 71 83 100 99 92 100 100 100 100 100 100 98 90 47 83 87 16 5 9 8 20 77 66 3 0 0 0 5 5
77 100 100 100 100 98 79 87 80 84 93 43 39 99 100 98 67 80 26 17 70 98 91 75 56 87 0 0 0 0 4 6
6 38 93 100 73 34 60 33 41 68 48 60 63 20 5 5 5 5 5 26 93 90 75 96 100 0 0 0 4 4 5 5
22 30 69 20 5 5 5 5 5 4 0 0 1 2 5 5 5 5 68 41 69 100 100 100 99 13 5 5 5 5 5 5
100 77 19 27 5 5 3 5 5 0 0 0 4 5 11 66 80 100 100 53 100 88 44 44 6 5 5 5 5 5 5 5
73 14 4 0 0 4 1 5 5 2 3 5 45 58 74 100 70 32 100 95 78 90 41 49 5 5 5 5 5 5 5 5
4 1 0 0 0 5 5 17 96 100 99 100 100 100 100 97 100 100 100 87 93 97 90 100 5 42 5 5 5 5 11 54

GFSFLT2_prec_cloud_039.txt.gz
Cloud_Cover
100 100 100 100 100 100 100 100 100 100 100 100 100 100 100 100 100 100 100 100 73 100 100 55 100 100 79 100 100 100 28 9
100 100 100 100 100 100 100 100 100 100 100 71 100 100 100 100 66 100 100 99 100 98 76 100 99 98 100 100 100 100 100 67
100 100 100 100 100 100 100 100 100 99 100 66 100 100 100 100 94 100 100 100 100 100 100 100 100 100 99 54 39 100 70 58
100 100 100 100 100 100 100 100 100 100 100 100 100 100 100 100 100 100 100 100 100 100 86 66 99 100 66 100 80 14 19 47
100 100 100 100 100 100 100 100 100 100 100 100 100 100 100 100 100 100 97 97 32 75 74 100 54 65 55 22 9 81 100 14
100 100 100 100 100 100 100 100 100 100 100 100 100 100 100 100 100 100 100 75 100 100 100 90 100 100 100 100 100 12 96 41
100 100 100 100 100 100 100 100 100 100 100 100 100 100 100 100 100 100 100 100 100 100 100 100 100 100 94 28 5 42 5 5
100 100 100 100 100 100 100 100 100 100 100 100 100 100 100 100 100 100 100 100 100 100 100 99 100 56 17 5 29 56 13 5
100 100 100 100 100 100 100 100 100 100 100 100 100 100 100 100 100 100 100 100 95 100 100 100 100 61 61 100 79 11 5 5
100 100 100 100 100 100 100 100 100 100 100 100 100 100 100 100 100 100 100 100 100 100 100 100 100 100 100 92 9 5 24 4
100 96 64 100 100 100 96 100 100 100 100 100 100 100 100 100 100 100 100 100 100 100 100 100 100 88 16 5 5 3 0 0
100 100 100 100 100 100 100 100 100 100 100 100 100 100 100 100 100 100 100 100 97 100 100 100 63 7 13 4 4 5 4 0
100 100 100 100 100 100 100 100 100 100 100 100 100 100 100 100 100 100 100 100 100 99 69 5 17 4 5 58 48 26 0 0
100 100 100 100 100 100 100 100 100 100 100 100 100 100 100 99 72 61 89 84 96 12 4 0 5 26 84 52 95 100 100 30
100 100 100 100 100 100 100 100 100 100 100 100 100 99 75 76 50 53 35 3 1 0 1 5 66 64 65 99 60 26 5 5
100 100 100 100 56 53 9 58 25 59 90 69 70 52 47 18 1 2 30 37 84 69 89 54 5 5 18 50 64 6 5 0
5 47 99 99 79 16 16 23 18 25 5 5 4 0 1 5 7 7 7 40 28 100 32 6 5 91 92 37 5 5 12 52
50 87 100 100 100 100 73 39 37 9 5 2 0 5 6 22 91 6 64 84 100 74 68 71 18 50 85 92 73 41 100 100
85 100 100 100 96 99 71 55 20 5 5 5 5 60 98 100 62 44 100 88 99 100 100 91 63 62 47 88 100 100 94 55
100 100 100 100 99 46 57 92 30 7 13 6 72 89 100 100 100 100 100 100 100 96 100 100 100 93 85 100 100 100 100 98

GFSFLT2_prec_cloud_042.txt.gz
Cloud_Cover
100 100 100 100 100 100 100 100 100 100 100 100 100 100 100 100 100 70 10 84 60 5 5 5 78 5 95 95 100 100 100 100
100 100 100 100 100 100 100 100 100 100 100 100 100 100 100 100 100 98 8 16 19 5 5 5 7 100 51 100 50 98 96 26
100 100 100 100 100 100 100 100 100 100 100 100 100 100 99 100 98 99 94 100 76 5 15 64 100 11 5 5 5 40 30 20
100 100 100 100 100 100 100 100 100 100 100 100 100 97 99 100 100 100 89 76 99 99 100 28 100 16 95 100 99 44 75 100
100 100 100 100 100 100 100 100 100 100 100 100 100 100 100 100 100 100 100 100 100 100 55 100 100 100 100 100 16 52 12 5
100 100 100 100 100 100 100 100 100 100 100 100 100 100 100 100 100 100 100 99 100 99 100 100 100 100 100 96 44 5 7 73
100 100 100 100 100 100 100 100 100 100 100 100 100 100 100 100 100 100 100 100 100 100 52 7 100 93 87 100 99 43 5 21
100 100 100 100 100 100 100 100 100 100 100 100 100 100 95 100 93 90 100 100 48 97 100 87 77 32 11 8 4 91 94 60
100 100 100 100 100 100 100 100 100 100 100 100 100 100 100 100 100 100 100 100 96 57 54 69 24 22 41 7 97 59 54 14
100 100 100 100 100 100 100 100 100 100 100 100 100 100 100 100 100 100 100 100 64 97 69 88 17 75 91 100 86 82 43 7
100 100 100 100 100 100 100 100 100 100 100 100 100 100 100 18 85 100 100 100 100 100 100 100 100 100 30 32 18 5 3 4
89 100 100 100 100 100 100 100 100 100 100 100 100 100 100 100 100 100 100 100 100 100 100 77 95 68 31 4 1 0 0 0
28 98 100 100 99 36 100 92 94 100 100 100 100 100 100 100 100 100 100 100 100 60 16 96 35 3 0 0 0 0 0 0
99 66 90 99 100 100 100 100 100 100 100 100 100 100 100 100 99 100 68 17 15 54 54 2 0 0 1 4 0 0 3 10
83 82 99 99 100 100 100 100 100 100 100 85 100 100 96 76 67 6 31 86 29 1 0 0 4 5 17 99 5 2 5 18
100 100 100 100 100 100 100 100 97 100 70 100 97 81 95 26 11 46 8 1 0 0 4 5 70 99 40 6 5 58 5 4
100 100 100 100 100 100 100 100 76 66 62 71 61 32 68 7 4 0 0 5 4 14 91 86 99 11 14 76 8 20 87 5
94 100 100 100 100 100 100 100 100 51 75 86 65 43 1 5 5 5 5 10 79 67 98 100 100 18 6 31 5 5 5 5
99 100 100 100 100 100 100 100 100 100 100 39 22 73 22 10 19 62 60 63 69 100 100 100 100 12 15 5 5 5 5 5
100 89 100 100 100 100 100 100 100 100 100 57 99 99 66 94 98 100 100 99 100 96 100 98 19 95 72 78 5 14 42 5

GFSFLT2_prec_cloud_045.txt.gz
Cloud_Cover
100 100 100 100 100 100 100 100 100 100 95 41 100 98 98 100 55 100 73 10 5 5 9 5 4 5 4 2 4 5 3 0
100 100 100 99 100 100 100 100 100 98 99 100 100 98 54 95 6 27 43 54 8 6 39 5 3 5 5 10 100 29 8 46
100 100 100 100 100 100 100 100 100 100 100 100 98 94 49 84 100 40 54 26 86 74 52 6 55 100 99 99 100 90 73 68
100 100 100 100 100 100 100 100 100 100 100 100 100 98 75 66 92 100 83 61 89 52 77 80 100 100 93 100 100 79 20 16
100 100 100 100 100 100 100 100 100 100 100 100 100 100 100 100 71 98 66 25 23 100 100 9 100 26 100 100 43 61 16 40
100 100 100 100 100 100 100 100 100 100 100 100 100 100 95 100 90 100 100 99 100 100 100 89 88 100 85 59 9 70 1 0
100 100 100 100 100 100 100 100 100 100 100 100 100 100 100 100 100 100 100 100 100 99 99 100 99 97 89 84 84 2 5 5
100 100 100 100 100 100 100 100 100 100 100 100 100 99 100 100 100 100 100 100 100 95 100 100 96 25 13 4 25 81 22 17
100 100 100 100 100 100 100 100 100 100 100 100 81 98 100 100 100 100 100 100 100 100 98 99 66 5 44 43 37 52 23 5
100 100 100 100 100 100 100 100 100 100 100 100 100 100 52 76 100 100 100 91 90 84 63 20 13 14 59 18 37 6 5 6
100 100 100 100 100 100 100 100 100 100 100 100 100 100 100 100 100 100 100 94 100 69 6 32 98 56 6 52 15 5 3 0
100 100 100 100 100 100 100 100 100 100 100 100 100 100 100 100 100 86 90 88 98 43 100 64 40 7 23 5 4 0 0 0
100 100 100 100 100 100 100 100 100 100 100 100 100 100 100 83 14 100 100 97 100 86 5 5 36 19 5 0 5 0 0 0
98 89 100 100 100 100 100 100 100 100 100 100 100 99 99 100 100 52 31 34 8 13 11 56 5 3 2 4 5 0 0 0
42 48 100 96 88 74 82 100 100 100 41 91 97 100 100 98 100 40 5 5 5 5 13 4 5 5 5 2 7 5 3 0
100 100 92 90 56 61 45 48 40 23 76 100 100 100 100 100 100 48 5 5 5 5 0 5 5 43 91 51 15 8 4 2
96 97 99 100 95 79 51 38 62 73 72 99 94 100 100 100 100 50 5 5 5 5 6 8 44 100 22 53 9 5 5 5
100 100 100 55 34 78 99 100 100 100 99 100 100 97 34 5 55 28 19 47 16 75 58 90 100 94 100 95 5 5 5 5
41 55 96 100 100 94 100 100 100 100 100 100 100 100 84 58 78 36 55 98 95 100 100 100 100 56 40 59 7 17 49 5
18 100 100 95 94 100 100 100 100 100 100 100 100 100 98 97 83 100 100 100 100 100 100 94 100 64 95 61 73 26 14 5

GFSFLT2_prec_cloud_048.txt.gz
Cloud_Cover
100 100 100 100 100 100 100 100 100 100 100 100 100 86 100 100 98 99 100 85 90 100 34 5 5 4 0 0 1 4 2 24
100 100 100 100 100 100 100 100 100 100 100 100 100 97 63 95 85 88 47 98 32 5 7 5 5 0 2 5 8 22 67 99
100 100 100 100 100 100 100 100 100 100 100 100 100 100 100 40 12 40 36 5 9 12 27 5 5 17 5 35 42 94 26 17
100 100 100 100 100 100 100 100 100 100 100 100 100 100 100 100 100 100 100 14 53 49 5 5 40 99 10 85 100 99 100 100
100 100 100 100 100 100 100 100 100 100 100 100 100 100 100 100 75 99 99 96 100 57 21 94 49 100 100 100 100 100 91 100
100 100 100 100 100 100 100 100 100 100 100 100 100 100 100 100 100 100 100 97 64 54 97 97 83 99 98 100 100 100 100 60
100 100 100 100 100 100 100 100 100 100 100 100 100 100 100 100 100 100 100 99 65 58 97 100 100 100 100 100 76 19 5 6
100 100 100 100 100 100 100 100 100 100 100 100 100 100 100 100 100 100 84 58 100 85 100 68 85 100 88 26 5 1 1 5
100 100 100 100 100 100 100 100 100 100 100 100 100 100 100 100 100 95 30 25 40 98 100 100 100 82 42 66 5 7 6 7
100 100 100 100 100 100 100 100 100 100 100 100 100 100 100 100 100 100 88 100 100 100 100 100 100 19 6 44 81 67 5 4
100 100 100 100 100 100 100 100 100 100 100 100 100 100 100 100 64 60 81 100 100 100 100 92 63 40 6 5 5 5 3 4
100 100 100 100 100 100 100 100 100 100 100 100 100 100 100 100 82 99 100 100 100 15 25 10 5 5 5 5 2 5 3 0
100 100 100 100 100 100 100 100 100 100 100 100 100 94 78 92 91 100 100 100 97 18 5 1 5 5 5 5 4 4 0 0
99 100 100 100 100 100 100 100 100 100 100 90 85 100 100 100 100 100 98 70 23 15 4 21 5 2 5 5 5 5 1 4
99 100 100 100 100 100 100 100 100 100 100 100 100 100 100 86 100 97 100 88 6 20 5 3 4 4 5 7 17 5 5 5
97 61 95 100 100 80 100 100 100 100 100 92 14 34 90 100 99 100 100 100 45 5 2 3 5 5 5 5 6 88 67 59
90 63 48 51 99 100 16 5 6 7 66 53 100 100 100 100 100 97 99 100 76 6 6 5 14 74 90 100 92 82 86 97
77 64 48 29 45 15 53 42 44 95 100 100 97 100 100 94 69 82 98 100 99 100 6 45 88 100 72 92 20 32 64 26
71 38 83 87 89 52 40 98 100 100 100 100 100 100 100 100 100 100 100 100 88 67 99 100 81 77 86 84 100 100 91 100
100 100 100 100 100 89 99 98 100 100 100 100 100 100 100 100 100 100 100 95 100 75 100 100 100 100 97 100 100 50 16 5

GFSFLT2_prec_cloud_051.txt.gz
Cloud_Cover
100 100 100 100 100 98 98 86 100 100 100 100 100 100 81 80 15 57 94 100 100 73 10 10 5 5 2 4 1 0 0 0
100 100 100 100 100 100 100 100 100 100 100 100 100 100 100 99 86 95 100 100 96 100 84 5 5 5 5 5 0 0 4 5
100 100 100 100 100 100 100 100 100 100 100 100 100 100 99 100 100 69 99 97 100 100 17 21 36 40 11 5 13 25 41 58
100 100 100 100 100 100 100 100 100 100 100 100 100 100 100 100 100 100 94 97 100 76 62 53 85 6 5 5 5 5 88 100
100 100 100 100 100 100 100 100 100 100 100 100 100 100 100 100 100 100 100 100 99 97 100 58 52 51 58 5 26 100 100 100
100 100 100 100 100 100 100 100 100 100 100 100 100 100 100 100 100 100 100 100 100 97 99 99 74 90 82 100 57 75 4 12
100 100 100 100 100 100 100 100 100 100 100 100 100 100 100 100 100 100 100 100 100 100 90 92 37 16 5 5 46 87 100 100
100 100 100 100 100 100 100 100 100 100 100 100 100 100 100 100 100 100 100 100 100 65 86 100 63 41 90 100 100 100 100 53
100 100 100 100 100 100 100 100 100 100 100 100 100 100 100 100 100 100 100 100 99 75 100 100 100 100 83 93 100 87 49 26
100 100 100 100 100 100 100 100 100 100 100 100 100 100 100 100 100 100 100 100 100 91 50 91 65 76 81 100 99 20 5 0
100 100 100 100 100 100 100 100 100 100 100 100 100 100 100 100 100 100 100 100 98 86 98 91 24 72 100 76 5 15 5 2
100 100 100 100 100 100 100 100 100 100 100 100 100 100 100 100 100 100 91 100 100 89 68 94 96 100 97 10 19 5 5 2
100 100 100 100 100 100 100 100 100 100 100 100 100 100 100 100 100 100 100 90 98 55 100 100 100 100 95 9 24 15 0 4
85 100 100 100 100 100 100 100 100 100 100 100 100 100 100 100 100 82 97 99 40 80 97 98 86 78 35 4 0 17 77 5
41 100 100 100 100 100 100 100 100 100 100 100 100 100 100 100 100 100 100 100 100 33 83 56 100 11 5 5 5 28 76 98
100 100 96 94 100 100 100 100 100 100 100 100 100 100 100 100 97 100 99 100 100 100 100 55 27 34 98 39 56 100 100 57
100 100 100 85 98 97 97 100 100 100 100 100 99 98 95 98 97 100 100 100 100 100 100 100 100 100 53 66 100 68 44 22
99 6 5 63 55 41 7 28 11 5 43 86 71 100 97 100 99 100 100 100 100 100 100 100 100 100 84 100 100 100 100 98
20 15 84 61 75 38 55 96 40 27 11 64 96 82 99 100 100 100 100 100 100 100 100 98 97 100 100 100 100 100 96 100
5 30 8 58 100 100 100 92 92 98 100 100 100 100 100 100 100 100 100 100 100 100 100 100 100 100 100 99 100 100 100 100

GFSFLT2_prec_cloud_054.txt.gz
Cloud_Cover
100 100 100 100 100 100 100 100 90 100 97 100 99 100 100 56 97 54 26 20 12 80 100 47 5 5 5 2 0 0 0 0
100 100 100 100 100 100 100 100 100 100 100 100 100 100 99 100 99 80 35 6 97 100 100 100 32 5 0 2 4 0 4 3
100 100 100 100 100 100 100 100 100 100 100 100 100 100 100 100 93 100 99 100 100 95 88 28 26 16 4 6 4 5 5 5
100 100 100 100 100 100 100 100 100 100 100 100 100 100 100 100 100 100 100 100 100 100 100 100 69 32 8 4 5 5 5 5
100 100 100 100 100 100 100 100 100 100 100 100 100 100 100 100 100 100 100 100 100 100 100 67 16 38 73 72 82 69 70 48
100 100 100 100 100 100 100 100 100 100 100 100 100 100 100 100 100 100 100 100 100 100 100 100 100 75 96 100 91 83 38 11
100 100 100 100 100 100 100 100 100 100 100 100 100 100 100 100 100 100 100 100 100 100 100 100 100 100 100 100 98 40 92 68
100 100 100 100 100 100 100 100 100 100 100 100 100 100 100 100 100 100 100 100 100 100 100 100 100 100 100 98 48 16 5 7
100 100 100 100 100 100 100 100 100 100 100 100 100 100 100 100 100 100 100 100 100 100 100 100 100 100 100 16 8 68 87 11
100 100 100 100 100 100 100 100 100 100 100 100 100 100 100 100 100 100 100 100 100 100 100 100 93 100 90 42 26 39 5 19
78 82 100 100 100 100 100 100 100 100 100 100 100 100 100 100 100 100 100 100 100 100 100 100 100 100 100 90 80 56 65 61
100 100 100 100 100 100 100 100 100 100 100 100 100 100 100 100 100 100 100 100 100 100 100 100 100 100 100 91 89 43 59 5
100 100 100 100 100 100 100 100 100 100 100 100 100 100 100 100 100 100 100 100 94 100 90 100 27 56 29 71 100 100 5 5
93 100 100 100 100 100 100 100 100 100 100 100 100 100 100 100 100 100 100 100 100 100 100 99 75 43 68 100 56 16 99 45
100 73 100 100 100 100 100 100 100 100 100 100 100 100 100 100 100 100 100 100 100 100 80 100 97 87 89 10 5 14 28 30
100 90 13 100 100 100 100 100 100 100 100 100 100 100 100 100 100 100 100 100 96 100 100 100 100 100 100 100 98 63 39 74
47 4 5 18 30 26 100 53 72 99 100 100 100 100 100 100 100 98 46 82 61 100 100 100 100 100 100 100 100 100 100 100
100 100 100 100 100 100 63 100 100 100 100 100 100 100 100 98 99 97 73 100 100 100 100 100 100 100 100 100 100 100 100 99
96 100 100 100 30 78 99 98 94 98 100 71 82 53 94 16 63 100 100 100 100 100 100 100 100 100 100 100 100 100 100 100
95 55 36 28 22 38 83 100 93 93 100 100 97 89 78 89 100 100 100 100 100 100 100 100 100 100 100 100 100 100 100 100

GFSFLT2_prec_cloud_057.txt.gz
Cloud_Cover
100 100 100 100 100 100 100 100 100 100 100 97 98 62 57 98 85 59 55 80 100 100 93 7 99 96 6 9 16 0 0 0
100 100 100 100 100 100 100 100 100 100 100 100 99 100 100 100 100 100 100 100 100 33 49 38 48 64 5 5 0 0 0 0
100 100 100 100 100 100 100 100 100 100 100 100 100 100 100 100 100 100 100 100 100 100 98 84 46 5 9 69 5 3 3 0
100 100 100 100 100 100 100 100 100 100 90 100 100 100 100 100 100 100 100 100 100 100 100 81 5 5 42 96 100 100 23 12
100 100 100 100 100 100 100 100 100 92 99 100 100 100 100 100 100 100 100 100 100 100 95 100 79 98 100 100 100 58 100 100
100 100 100 100 100 100 100 100 100 100 99 100 100 100 100 100 100 100 100 100 100 100 100 100 100 100 100 100 100 100 100 87
100 100 100 100 100 100 100 100 100 100 100 100 96 100 100 100 100 100 100 100 100 89 100 100 100 100 86 100 50 91 100 97
100 100 100 100 100 100 100 100 100 100 100 100 100 100 100 100 100 100 100 100 100 100 100 100 100 100 100 100 100 100 100 81
100 100 100 100 100 100 100 100 100 100 100 100 100 100 100 100 100 100 100 100 100 100 100 100 100 100 100 100 97 93 100 100
100 100 100 100 100 100 100 100 100 100 100 100 100 95 100 100 100 100 100 100 100 100 100 100 100 93 100 100 99 90 100 100
74 100 95 100 100 100 100 100 100 100 100 100 100 100 100 100 100 100 100 100 100 100 100 100 100 100 100 100 100 100 100 35
55 100 100 100 100 100 100 100 100 100 100 100 100 97 100 100 100 100 100 100 100 100 100 100 100 100 100 100 100 100 100 99
100 92 100 100 100 100 100 100 100 100 100 100 100 100 100 100 100 100 100 100 100 100 100 100 100 100 100 100 100 100 100 100
99 100 100 99 85 100 100 100 100 100 100 100 100 100 100 100 100 100 98 100 100 100 100 100 100 100 100 100 100 93 99 84
92 48 99 72 53 100 100 100 100 100 100 100 100 100 100 100 100 100 100 100 100 100 100 100 100 95 80 82 99 79 71 93
77 100 100 100 100 100 100 100 100 100 100 100 100 100 100 100 100 100 100 100 100 100 100 100 100 92 51 99 71 96 100 100
62 97 100 99 95 100 100 100 100 100 100 100 100 100 100 100 100 100 100 100 100 100 100 100 100 100 100 100 100 85 100 100
8 5 27 26 5 88 100 100 100 100 100 100 100 100 100 100 100 100 100 100 100 100 100 99 100 100 93 100 100 100 100 100
100 85 100 100 100 95 53 99 100 98 100 100 100 100 100 93 99 100 100 100 100 99 100 100 100 100 100 100 100 100 100 100
97 38 100 100 100 100 98 90 38 97 60 99 100 100 100 92 100 96 100 100 100 100 100 100 100 100 100 100 100 100 100 100

GFSFLT2_prec_cloud_063.txt.gz
Cloud_Cover
100 100 100 100 100 100 100 100 100 100 100 100 100 100 100 100 52 100 88 56 70 57 53 97 16 56 99 98 85 97 51 48
100 100 100 100 100 100 100 100 100 100 100 100 100 100 100 100 96 57 14 70 81 100 100 98 98 8 99 90 7 43 14 42
100 100 100 100 100 100 100 100 100 100 100 100 100 100 100 86 100 11 67 100 84 100 100 100 84 29 80 100 96 91 42 46
100 100 100 100 100 100 100 100 100 100 100 100 100 100 100 30 89 100 100 99 97 94 100 100 89 44 100 96 91 94 69 88
100 100 100 100 100 100 100 100 100 100 100 100 100 98 92 100 88 100 100 100 38 76 100 100 93 73 97 95 74 90 99 100
100 100 100 100 100 100 100 100 100 100 100 100 100 97 100 100 100 92 95 98 81 85 100 100 100 75 100 100 82 40 98 96
100 100 100 100 100 100 100 100 100 100 100 99 100 100 100 100 100 100 100 100 56 61 100 100 100 76 89 100 100 78 90 92
100 100 100 100 100 100 100 100 100 100 100 100 100 97 100 100 100 100 100 100 99 84 85 100 100 100 55 100 100 100 100 100
100 100 100 100 100 100 100 100 100 100 100 100 100 100 97 100 100 100 97 100 100 60 79 98 93 100 90 98 76 90 100 100
100 100 100 100 100 100 100 100 100 100 100 100 100 100 100 100 100 100 100 100 100 99 60 91 100 100 100 91 94 100 100 100
100 100 100 100 100 100 100 100 100 100 100 100 100 100 100 100 100 100 100 100 100 100 100 100 100 100 100 100 100 100 100 100
100 93 100 100 100 100 100 100 100 100 100 100 100 100 100 100 100 100 100 100 100 100 100 100 100 100 100 100 100 100 100 100
100 100 100 91 100 100 100 100 100 100 100 100 100 100 100 100 100 100 100 100 100 100 100 100 100 100 100 100 100 100 100 100
100 100 86 73 86 100 99 100 100 100 100 100 100 100 100 100 100 100 100 100 100 100 100 100 100 100 100 100 100 100 100 100
100 98 75 78 99 58 99 100 100 100 100 100 100 100 100 100 100 100 100 100 100 100 100 100 100 100 100 100 100 100 100 100
100 80 100 72 98 97 100 100 100 100 100 100 100 100 100 100 100 100 100 100 100 100 100 100 100 100 100 100 100 100 100 100
82 47 31 52 100 59 100 96 92 100 100 100 100 100 100 100 100 100 100 100 100 100 100 100 100 100 100 100 100 100 100 100
22 61 97 10 5 100 100 100 100 100 98 100 100 100 100 100 100 100 100 100 100 100 100 100 100 100 100 100 100 100 100 100
16 23 5 5 0 4 78 100 100 100 100 100 62 25 83 100 100 100 100 100 100 100 100 100 97 100 93 90 98 94 94 75
50 74 88 97 82 5 10 39 16 94 99 100 86 92 100 100 100 100 100 100 100 100 99 100 100 100 81 70 86 95 100 100

GFSFLT2_prec_cloud_066.txt.gz
Cloud_Cover
49 33 61 100 100 100 100 100 100 100 100 100 100 100 99 95 50 100 100 100 80 5 5 26 86 99 93 82 76 31 49 68
100 100 100 100 100 100 100 100 100 100 100 100 100 100 100 100 100 75 100 81 15 5 8 99 100 89 100 98 79 100 12 15
100 100 100 100 100 100 100 100 100 100 100 100 100 100 100 100 100 100 100 66 29 11 93 55 100 100 100 58 99 29 65 16
100 100 100 100 100 100 100 100 100 100 100 100 100 100 100 100 100 100 100 86 76 99 100 100 100 100 100 88 95 65 88 61
100 100 100 100 100 100 100 100 100 100 100 100 100 100 100 100 100 100 100 100 99 98 56 100 100 100 90 100 100 89 95 100
100 100 100 100 100 100 100 100 100 100 100 100 100 100 100 100 100 90 100 98 100 100 85 100 100 99 92 100 100 100 100 100
100 100 100 100 100 100 100 100 100 100 100 100 100 100 96 100 92 100 100 100 100 100 88 99 87 100 100 100 100 100 100 100
100 100 100 100 100 100 100 100 100 100 100 100 100 100 100 100 100 100 100 100 100 100 100 94 100 97 99 100 100 100 100 100
100 100 100 100 100 100 100 100 100 100 100 100 100 100 100 100 100 100 84 100 100 100 100 100 100 87 100 100 100 100 98 100
100 100 100 100 100 100 100 100 100 100 100 100 100 100 100 100 100 100 97 100 100 100 100 100 100 100 100 100 100 100 100 100
100 100 100 100 100 100 100 100 100 100 100 100 100 100 100 100 100 100 100 100 100 100 97 100 100 100 100 100 100 100 100 100
100 100 100 100 100 100 100 100 100 100 100 100 100 100 100 100 100 100 100 100 100 100 100 100 100 100 100 100 100 100 100 100
100 100 100 100 100 100 100 100 100 100 100 100 100 100 100 100 100 100 100 100 100 100 100 100 99 100 100 100 100 100 99 100
100 100 100 100 100 100 100 100 100 100 100 100 100 100 100 100 100 100 100 100 100 100 100 100 100 100 100 100 100 100 100 100
89 100 100 100 100 100 100 100 100 100 100 100 100 100 100 100 100 100 100 100 100 100 100 100 100 100 100 100 100 100 100 100
91 96 93 52 100 98 100 100 100 100 100 100 100 100 100 100 100 100 100 100 98 100 100 100 100 100 100 100 100 100 100 100
87 38 46 83 100 84 80 100 100 100 100 100 100 100 100 100 100 100 100 100 100 100 100 100 100 100 100 99 100 100 100 100
100 100 67 54 97 100 70 70 100 99 100 94 100 100 100 100 100 100 100 100 100 100 100 100 100 100 100 100 100 100 100 100
100 100 100 67 89 50 91 44 77 100 100 92 73 92 100 100 100 100 100 100 100 100 100 100 100 100 100 100 100 92 100 100
82 100 82 30 6 5 0 15 69 100 100 100 100 100 100 100 100 100 100 100 100 68 100 100 98 100 100 100 100 100 100 100

GFSFLT2_prec_cloud_069.txt.gz
Cloud_Cover
100 95 76 100 100 88 100 100 100 100 100 100 100 100 100 100 100 100 100 26 93 10 99 18 4 3 5 100 98 96 48 5
100 100 100 100 100 100 100 100 100 100 100 100 100 100 100 100 100 100 100 96 22 18 37 5 31 99 49 100 100 77 94 68
100 100 100 100 100 100 100 100 100 100 100 100 100 100 100 100 100 100 100 86 88 41 5 93 72 99 82 100 100 100 90 65
100 100 100 100 100 100 100 100 100 100 100 100 98 100 100 100 100 100 100 89 85 11 5 94 94 89 71 100 100 100 99 96
100 100 100 100 100 100 100 100 100 100 100 100 100 100 100 100 100 100 100 100 84 96 34 95 96 56 50 100 100 85 83 100
100 100 100 100 100 100 100 100 100 100 100 100 100 100 100 100 100 100 100 87 92 93 100 35 98 55 73 100 90 83 91 90
100 100 100 100 100 100 100 100 100 100 100 95 100 100 100 100 91 74 89 68 55 47 56 65 80 67 69 42 100 69 57 96
100 100 100 100 100 100 100 100 100 100 100 100 100 100 100 100 100 100 73 48 30 97 94 88 100 92 92 100 100 100 86 100
100 100 100 100 100 100 100 100 100 100 100 100 100 100 100 100 88 100 100 95 92 100 100 100 100 100 100 100 100 100 92 76
100 100 100 100 100 100 100 100 100 100 100 100 100 100 100 100 100 89 93 65 99 100 100 100 100 99 100 100 100 93 100 99
100 100 100 100 100 100 100 100 100 100 100 100 100 100 100 100 100 100 100 100 100 100 100 100 100 100 100 100 100 100 100 100
100 100 100 100 100 100 100 100 100 100 100 100 100 100 100 100 100 100 100 100 100 100 100 100 100 100 100 100 100 100 97 100
100 100 100 100 100 100 100 100 100 100 100 100 100 100 100 100 100 100 100 100 100 100 100 100 100 100 100 100 100 100 80 100
99 100 100 100 100 100 100 100 100 100 100 100 100 100 100 100 100 100 100 100 100 100 100 100 100 100 100 100 100 97 86 97
100 90 99 100 100 100 100 100 100 100 100 100 100 100 100 100 100 100 100 100 100 100 100 100 100 100 100 100 100 100 100 100
100 100 97 100 100 100 100 100 100 100 100 100 100 100 100 100 100 100 100 100 100 100 100 100 100 100 100 100 100 100 100 100
63 72 64 62 67 99 95 100 100 100 100 100 100 100 100 100 100 100 100 100 100 100 100 100 100 100 100 100 100 100 100 100
69 30 32 42 40 100 28 52 89 100 100 100 100 100 100 100 100 100 100 100 100 100 100 100 100 100 100 100 100 100 100 100
100 39 50 60 53 100 100 100 100 100 100 100 100 100 100 100 100 100 100 100 100 100 100 100 100 100 100 100 100 100 100 100
52 85 99 99 48 48 100 100 81 88 65 100 100 100 100 100 100 100 100 100 100 100 100 100 100 100 100 100 100 100 100 100

GFSFLT2_prec_cloud_072.txt.gz
Cloud_Cover
99 100 100 55 86 100 100 96 94 100 88 99 100 100 100 100 100 100 100 100 96 95 18 42 80 99 15 2 5 5 72 20
100 97 97 100 100 100 90 100 94 100 100 100 100 100 100 100 100 100 100 100 100 68 100 98 100 11 70 7 80 24 95 45
100 100 100 100 100 100 98 100 100 100 100 100 100 100 100 100 100 100 100 100 100 100 100 100 5 5 17 81 24 98 92 99
100 100 100 100 100 100 100 100 100 100 100 100 100 100 100 100 100 100 100 100 100 100 37 59 5 5 61 99 73 98 97 100
100 100 100 100 100 100 100 100 100 100 100 100 100 100 100 100 100 100 100 100 99 74 87 5 5 25 63 56 98 100 100 99
100 100 100 100 100 100 100 100 100 100 100 100 100 100 100 100 100 100 100 99 100 99 90 10 46 81 100 20 78 100 100 78
100 100 100 100 100 100 100 100 100 100 100 100 100 100 100 100 100 100 96 100 100 100 23 95 82 70 58 88 51 68 61 66
100 100 100 100 100 100 100 100 100 100 100 100 100 100 100 100 99 100 99 100 99 99 84 30 92 64 100 25 53 87 100 100
100 100 100 100 100 100 100 100 100 100 100 100 100 100 100 100 100 100 99 78 68 92 43 79 100 68 39 9 49 79 97 99
100 100 100 100 100 100 100 100 100 100 100 100 100 100 100 100 100 100 100 100 95 100 97 100 91 54 20 100 100 100 100 100
100 100 100 100 100 100 100 100 100 100 100 100 100 100 100 100 100 100 100 96 87 100 100 100 96 87 99 99 100 93 100 100
100 100 100 100 99 100 100 100 100 100 100 100 100 100 100 100 99 100 100 100 100 90 100 100 100 100 100 100 100 100 100 100
100 100 100 100 100 100 100 100 100 100 100 100 100 100 100 100 100 100 100 100 100 100 100 100 100 100 100 100 100 100 100 100
98 100 100 100 100 100 100 100 100 100 100 100 100 100 100 100 100 100 100 100 100 100 100 100 100 100 100 100 100 100 100 100
100 100 100 100 100 100 100 100 100 100 100 100 100 100 100 100 100 100 100 100 100 100 100 100 100 100 100 100 100 100 100 100
46 100 100 91 100 100 86 100 100 100 100 100 100 100 100 100 100 100 100 100 100 100 100 100 100 100 100 100 100 100 100 100
50 100 82 84 100 99 87 100 100 100 100 100 100 100 100 100 100 100 100 100 100 100 100 100 100 100 100 100 100 100 98 100
10 14 36 91 100 99 100 100 100 100 90 100 100 100 100 100 100 100 100 100 100 100 100 100 100 100 100 100 100 100 100 100
0 0 2 62 83 99 68 95 100 100 93 100 100 100 100 100 100 100 100 100 100 100 100 100 100 100 100 100 100 100 100 100
0 0 0 2 49 67 90 100 73 100 100 100 100 100 100 100 100 100 100 100 100 100 100 100 100 100 100 100 100 100 100 99

GFSFLT2_prec_cloud_075.txt.gz
Cloud_Cover
99 79 100 100 100 100 100 100 100 100 100 100 100 86 100 100 95 100 100 100 100 100 100 69 45 7 5 5 28 5 5 8
100 100 100 100 100 100 100 100 100 100 100 100 92 27 100 100 97 100 100 100 100 100 100 97 38 78 9 100 66 5 16 35
100 97 97 100 100 100 100 100 100 100 100 100 100 100 100 100 100 100 100 100 91 100 50 99 61 100 98 100 82 14 98 100
100 100 100 98 100 100 100 100 100 100 100 100 100 100 100 100 100 100 100 100 100 100 100 100 100 100 100 26 44 82 97 94
100 100 100 83 100 100 100 100 100 100 100 100 100 100 100 100 100 100 100 100 100 100 100 100 100 41 11 98 98 100 100 100
100 100 100 100 100 100 100 100 100 100 89 100 100 100 100 100 100 100 100 100 100 100 100 100 100 83 16 100 100 100 100 82
100 100 100 100 100 100 100 100 100 100 100 100 100 100 100 100 100 100 100 100 100 100 100 100 39 12 12 92 62 99 62 68
100 100 100 100 100 100 100 100 100 100 100 100 100 100 100 100 100 100 100 100 100 95 100 58 100 30 74 42 89 88 98 88
100 100 100 100 100 100 93 100 100 100 100 100 100 100 100 100 100 100 100 100 100 100 86 88 85 79 67 43 100 100 14 92
100 100 100 100 100 100 100 100 100 100 100 100 100 100 100 100 100 96 100 100 100 100 82 70 100 67 100 93 42 57 93 58
100 100 100 100 100 100 100 100 100 100 100 100 100 100 100 100 100 100 100 100 100 95 100 100 98 99 81 85 85 64 60 50
38 100 100 100 100 100 100 100 100 100 100 100 100 100 100 100 100 100 100 100 100 100 100 69 66 69 49 56 99 98 100 100
100 100 100 100 100 100 100 100 100 100 100 100 100 100 100 100 100 100 100 100 100 100 100 67 100 55 91 100 100 100 100 100
72 100 96 100 100 100 100 100 100 100 100 100 100 100 100 100 100 100 98 99 100 100 89 100 100 100 100 100 100 100 100 100
51 76 93 100 100 100 100 100 100 100 100 100 100 100 100 100 100 99 100 100 100 100 100 100 100 100 100 100 100 100 100 100
22 48 90 97 100 100 100 100 100 100 100 100 100 100 100 100 100 100 100 100 100 100 100 100 100 100 100 100 100 100 100 100
3 100 96 98 100 100 100 100 100 100 100 100 100 100 100 100 100 100 100 100 100 100 100 100 100 100 100 100 100 100 100 100
0 53 68 100 100 96 100 100 100 100 100 100 100 100 100 100 100 100 100 100 100 100 100 100 100 100 100 100 100 100 100 100
0 0 2 97 73 99 84 100 97 95 100 100 100 100 100 100 100 100 100 100 100 100 100 100 100 100 100 100 100 100 100 100
0 0 0 10 100 73 90 100 100 92 85 46 72 66 99 98 100 100 100 100 100 100 100 100 100 100 100 100 100 100 100 100

GFSFLT2_prec_cloud_078.txt.gz
Cloud_Cover
62 78 82 59 100 100 100 100 100 100 100 100 100 100 100 100 100 95 64 100 99 97 100 100 100 100 100 16 5 2 1 23
42 100 30 100 100 100 100 100 100 100 100 100 100 100 100 100 100 57 78 98 80 100 100 100 100 100 100 4 4 21 95 65
100 100 100 100 100 100 100 100 100 100 100 100 100 89 98 100 99 89 100 100 100 100 100 100 100 100 90 42 94 100 100 44
87 100 100 100 100 100 100 100 100 100 100 100 100 100 86 100 100 100 100 100 100 100 100 100 100 72 99 78 97 99 100 100
12 68 100 100 100 100 100 100 100 100 100 100 100 100 100 100 100 100 100 99 100 100 100 82 100 100 100 80 100 100 100 100
100 100 72 100 100 100 100 100 100 100 100 100 100 100 100 100 100 100 100 100 100 100 100 100 100 100 100 100 100 100 100 92
97 100 90 82 99 100 100 100 100 100 100 100 100 100 100 100 100 100 100 100 100 100 100 100 100 100 100 100 100 99 100 100
96 76 100 100 93 100 100 100 100 100 100 100 100 100 100 100 100 100 100 100 100 100 100 100 100 100 100 100 64 100 85 100
100 97 100 100 100 99 100 100 100 100 100 100 100 100 100 100 100 100 100 100 100 100 100 100 100 100 100 56 86 81 99 96
100 100 98 100 100 100 96 87 100 100 100 100 100 100 100 100 100 100 100 100 100 100 100 88 100 92 76 61 99 85 100 100
67 100 100 100 100 100 100 100 96 100 100 100 100 100 100 100 100 100 100 96 100 100 100 95 88 97 95 100 100 100 81 76
99 100 100 100 100 100 100 100 100 100 100 100 100 100 100 100 100 100 100 100 100 100 100 100 100 100 100 100 100 74 16 44
100 100 100 100 100 100 100 100 100 100 100 100 100 100 100 100 100 100 100 100 100 100 100 100 100 100 100 95 97 93 31 64
36 100 100 100 100 100 100 100 100 100 100 100 100 100 100 98 100 100 100 100 100 100 100 100 100 100 100 100 100 100 99 100
22 37 100 100 100 100 100 100 100 100 100 100 100 100 100 100 100 100 100 100 100 100 100 100 100 100 100 100 100 100 100 98
0 5 100 49 100 100 100 100 100 98 99 88 100 100 100 100 100 100 100 100 100 100 100 100 100 100 100 100 100 100 100 100
0 3 100 95 99 100 100 100 100 100 100 100 100 100 100 100 100 100 100 100 100 100 100 100 100 100 100 100 100 100 100 100
0 0 14 100 100 100 100 100 100 100 95 100 100 100 100 100 100 100 100 100 100 100 100 100 100 100 100 100 100 100 100 100
0 0 7 37 100 98 45 62 70 50 93 100 99 99 100 100 100 100 100 100 100 100 100 100 100 100 100 100 100 100 100 100
0 2 0 0 32 82 83 81 100 82 92 100 20 83 91 100 100 100 100 100 100 100 100 100 100 100 100 100 100 100 100 100

GFSFLT2_prec_cloud_081.txt.gz
Cloud_Cover
2 77 2 2 1 37 2 2 61 100 95 100 100 100 100 100 100 100 99 88 100 100 86 58 46 79 100 100 100 100 41 3
7 100 47 14 6 100 100 94 96 100 100 100 100 100 100 100 100 100 99 100 100 98 59 60 74 100 100 100 100 100 12 24
0 97 100 26 94 100 100 100 100 100 100 100 100 100 100 100 100 100 98 64 100 44 44 100 100 100 100 100 100 88 9 95
4 100 42 95 100 100 100 100 100 100 100 100 100 100 100 100 32 100 51 76 80 15 44 100 100 100 100 100 100 72 65 100
34 55 52 100 100 100 100 100 100 100 100 100 100 100 100 100 69 84 91 100 100 84 100 100 100 92 100 100 100 100 100 100
51 29 34 98 100 100 100 100 100 100 100 100 100 100 100 100 100 100 90 100 97 100 86 91 100 93 88 100 100 100 100 100
4 83 100 100 100 100 100 100 100 100 100 100 100 100 100 100 100 100 99 100 100 100 95 64 100 100 100 100 100 100 100 100
66 79 100 98 100 90 100 100 100 100 100 100 100 99 100 99 100 100 100 100 100 100 80 91 100 77 100 100 100 100 100 100
9 100 83 73 100 100 100 100 100 100 100 100 100 100 100 100 100 100 100 100 99 96 85 100 100 100 100 100 100 100 100 100
31 100 100 50 95 100 100 100 100 100 100 100 100 100 100 100 100 100 100 100 100 100 100 100 100 100 100 100 100 100 100 57
27 98 100 100 86 92 100 100 100 100 100 100 100 100 100 100 100 100 100 100 100 100 100 100 100 100 100 100 100 100 100 63
32 81 100 100 100 99 99 100 100 100 100 100 100 100 100 100 100 100 100 100 100 100 100 100 100 100 100 99 100 100 100 91
22 100 100 100 100 98 100 100 100 100 100 100 100 100 100 100 100 100 100 100 100 100 100 99 100 100 100 100 90 100 100 100
0 100 100 100 100 100 100 100 99 100 98 100 100 100 100 100 100 100 100 100 100 100 100 97 100 100 100 100 100 100 100 100
27 100 100 100 100 100 100 100 100 100 100 100 100 100 100 100 100 100 100 100 100 100 100 100 100 100 100 100 90 100 92 95
3 74 91 82 100 100 100 100 100 100 100 100 100 100 100 100 100 100 100 100 100 100 100 100 100 100 100 100 100 100 100 100
0 11 65 91 86 100 100 99 100 100 100 97 100 100 100 100 99 100 100 100 100 100 100 100 100 100 100 100 100 100 100 100
0 0 63 100 100 100 100 89 87 100 100 100 100 100 100 100 100 100 100 100 100 100 100 100 100 100 100 100 100 100 96 100
0 0 1 98 99 100 100 93 100 100 100 86 100 100 100 100 100 100 100 100 100 100 100 100 100 100 100 100 100 100 100 100
0 0 0 48 100 100 100 100 100 100 100 100 91 100 100 100 100 100 100 100 100 100 100 100 100 100 100 100 100 100 100 100

GFSFLT2_prec_cloud_084.txt.gz
Cloud_Cover
11 29 2 0 0 0 2 5 31 7 99 100 100 100 100 100 100 100 100 100 100 85 94 44 100 100 100 5 36 100 100 100
10 31 100 79 33 10 5 5 2 8 100 100 100 100 100 100 100 100 100 100 70 100 100 97 99 100 94 62 80 100 100 100
18 25 99 91 27 54 25 76 99 79 51 100 100 100 100 100 100 100 100 100 36 41 58 40 36 99 99 99 96 100 100 100
7 12 100 80 53 99 81 99 100 79 70 100 100 100 100 100 100 100 100 82 27 74 5 4 38 89 100 96 100 100 100 100
16 19 100 36 92 100 100 100 100 100 81 100 100 100 100 100 100 100 100 98 88 46 46 5 65 100 100 99 98 100 100 100
17 11 16 9 81 100 100 100 100 100 100 100 100 100 100 100 100 100 100 100 96 97 46 30 95 100 100 100 100 100 100 100
44 16 17 79 99 100 100 100 100 100 100 100 100 100 100 100 100 100 100 100 72 86 72 74 96 95 100 99 67 100 100 100
30 13 2 100 100 100 100 100 100 100 100 100 100 100 100 100 100 100 100 100 90 88 100 79 60 100 100 100 57 99 100 100
32 26 5 17 22 92 100 100 100 100 100 100 100 100 100 100 100 100 100 100 100 100 93 100 63 100 100 100 73 100 100 100
38 35 18 42 100 100 100 100 100 100 100 100 100 100 100 100 100 100 100 91 99 80 100 100 92 100 100 87 98 100 100 100
92 26 31 66 65 100 100 100 100 100 100 100 100 100 100 100 100 100 100 100 89 100 100 100 100 100 100 91 100 100 100 100
100 53 88 85 100 100 100 100 100 100 100 100 100 100 100 100 100 100 100 100 100 100 100 100 100 100 100 100 100 100 100 100
100 100 96 100 100 100 100 100 100 100 100 100 100 100 100 100 100 100 100 100 100 100 100 100 100 100 98 100 100 100 100 100
46 80 100 77 100 100 100 98 100 100 100 100 100 100 100 100 100 100 100 100 100 100 100 100 100 100 100 100 100 100 100 100
0 5 100 100 100 97 100 100 100 100 100 100 100 100 100 100 100 100 100 100 100 100 100 100 100 100 100 100 100 100 100 100
12 11 81 100 100 100 100 100 100 100 100 100 98 100 100 100 100 100 100 100 100 100 100 100 100 100 100 100 100 100 100 100
33 96 94 98 100 100 100 100 100 100 100 100 96 100 100 100 100 100 100 100 100 100 100 100 100 100 100 100 100 100 100 100
100 100 100 100 100 100 100 100 100 90 100 100 100 97 94 100 100 100 100 100 100 100 100 100 100 100 100 100 100 100 100 100
97 100 100 100 69 97 100 100 100 87 78 34 67 97 100 100 100 100 100 100 100 100 100 100 100 100 100 100 100 100 100 100
23 79 94 99 56 96 100 100 100 100 97 11 0 4 100 100 100 100 100 100 100 100 100 100 100 100 100 100 100 100 100 100

GFSFLT2_prec_cloud_087.txt.gz
Cloud_Cover
100 100 98 100 100 100 100 32 70 100 100 100 100 100 97 100 100 100 100 100 100 100 100 100 100 92 63 100 100 16 100 100
92 66 28 99 42 54 97 97 29 86 100 13 100 100 100 100 100 100 100 100 100 100 100 100 51 76 100 100 100 44 76 100
41 92 79 100 84 8 17 1 52 21 13 95 100 100 95 100 100 100 100 73 100 100 95 100 70 50 13 95 100 28 76 100
41 38 56 49 93 21 35 3 46 85 98 62 100 100 100 100 100 100 100 100 36 57 33 100 98 34 100 21 84 71 100 100
50 47 53 55 96 74 99 100 100 100 100 97 100 100 100 100 100 100 100 100 100 73 63 100 94 99 5 23 99 96 100 100
23 27 43 100 100 100 100 100 100 100 100 100 100 100 100 100 100 100 100 100 100 100 61 100 100 81 19 32 100 100 100 100
37 34 32 81 100 100 100 100 100 100 98 100 100 100 100 100 100 100 100 100 100 99 100 100 100 89 70 92 100 96 100 100
58 43 18 27 62 100 100 100 100 100 100 100 100 100 100 100 100 100 100 100 100 100 100 100 100 99 37 71 93 100 100 100
100 56 34 24 19 71 100 100 100 100 100 100 100 100 100 100 100 98 100 100 100 100 100 98 100 94 75 100 71 99 100 100
73 53 31 30 35 100 100 100 100 100 100 100 100 100 100 100 100 100 100 100 100 100 68 100 100 100 100 99 92 100 100 100
97 47 40 100 100 100 100 100 100 100 100 100 100 100 100 100 100 100 100 100 100 100 99 100 100 100 100 100 100 100 88 100
91 53 69 100 56 61 96 100 100 100 100 100 100 100 100 100 100 100 100 100 100 100 92 89 100 100 90 97 100 94 100 100
100 89 100 100 100 100 100 100 100 100 100 100 100 100 100 100 100 100 100 100 100 100 100 98 100 100 100 94 100 100 100 100
100 100 100 100 100 96 96 100 100 100 100 100 100 100 100 100 100 100 100 100 100 100 100 100 100 100 100 100 100 100 100 100
100 100 100 62 100 100 98 100 100 100 100 100 100 100 100 100 100 100 100 100 100 100 100 100 100 100 100 100 100 100 100 100
100 100 100 100 62 76 90 77 100 100 100 100 100 100 100 100 100 100 100 100 100 100 100 100 100 100 100 100 100 100 100 100
100 100 100 100 100 69 67 100 100 100 100 100 100 100 100 100 100 100 100 100 100 100 100 100 100 100 100 100 100 100 100 100
100 23 71 100 100 96 45 100 99 100 100 97 100 100 100 100 100 100 100 100 100 100 100 100 100 100 100 100 100 100 100 100
87 93 100 73 66 87 75 67 79 100 100 100 100 100 97 98 100 100 100 100 100 100 100 100 100 100 100 100 100 100 100 100
100 100 100 80 100 97 92 92 62 100 100 41 38 100 50 96 64 99 100 100 100 100 100 100 100 100 100 100 100 100 100 100

GFSFLT2_prec_cloud_090.txt.gz
Cloud_Cover
83 100 100 100 95 81 100 5 3 46 100 100 89 100 100 100 100 100 100 100 100 100 100 100 100 100 100 99 100 78 100 100
80 100 100 100 100 100 100 89 98 95 100 97 90 90 100 100 100 100 100 100 100 100 100 100 100 100 100 100 100 88 79 73
100 99 100 87 100 99 100 100 100 100 100 100 90 25 15 5 91 100 100 100 100 100 100 100 100 90 100 74 98 100 99 95
100 100 66 39 100 76 100 100 100 96 77 96 85 60 57 67 100 100 100 100 100 100 100 100 100 79 69 100 100 100 99 95
100 100 100 46 57 95 87 100 89 48 47 98 100 90 92 100 100 100 100 100 100 100 100 76 99 97 70 100 87 100 92 94
100 98 100 93 100 100 97 87 100 87 95 100 100 96 100 100 100 100 100 100 100 100 96 86 86 100 100 100 100 82 96 59
32 99 100 100 100 99 97 100 100 100 100 100 90 96 100 100 100 100 100 100 100 100 100 100 99 100 98 85 74 86 62 70
13 96 100 100 100 100 100 100 100 100 100 100 100 99 100 100 100 100 100 100 100 100 100 92 79 39 98 37 56 93 56 52
52 99 61 100 100 100 97 100 100 100 100 100 100 100 100 100 100 100 100 100 100 100 100 100 96 87 38 51 70 85 41 19
96 100 91 62 88 100 100 99 100 100 100 100 100 100 100 100 100 100 100 100 100 100 100 100 100 100 100 100 76 100 84 5
100 100 100 94 95 100 100 100 100 100 100 100 100 100 100 100 100 100 100 97 100 100 100 79 100 100 98 100 93 78 75 65
100 100 100 100 100 100 100 100 100 100 100 100 100 100 100 100 100 100 100 100 100 100 100 100 100 97 100 89 88 78 100 51
100 100 100 100 100 100 100 100 100 100 100 100 100 100 100 100 100 100 100 100 100 100 100 100 100 97 100 100 100 98 100 100
100 100 100 100 100 100 38 90 100 100 100 100 100 100 100 100 100 100 100 100 100 100 100 100 100 100 100 99 100 100 100 100
100 100 100 100 100 99 61 98 100 100 100 100 100 100 100 100 100 100 100 100 100 100 100 100 100 100 100 98 100 100 100 100
100 100 96 100 100 100 100 99 100 97 100 100 100 100 100 100 100 100 100 100 100 100 97 100 100 100 100 100 100 100 100 100
100 100 100 100 100 100 100 100 61 79 100 100 100 100 100 100 100 100 100 100 100 100 100 100 100 100 100 100 100 100 100 100
100 100 100 100 100 100 100 100 41 69 100 100 100 100 100 100 100 100 100 100 100 100 100 100 100 100 100 100 100 100 100 100
100 100 100 100 100 100 100 93 4 55 100 100 100 100 100 100 100 100 100 100 100 100 100 100 100 100 100 100 100 100 100 100
100 100 100 100 100 100 100 51 19 100 100 100 100 100 100 100 100 100 100 100 100 100 100 100 100 100 100 100 100 100 100 100

GFSFLT2_prec_cloud_093.txt.gz
Cloud_Cover
100 100 100 56 8 1 0 0 0 0 0 19 7 89 73 100 100 100 100 100 100 100 100 100 100 100 100 100 100 98 54 13
100 94 100 39 16 100 26 0 0 1 7 100 100 100 100 99 91 100 100 100 100 100 100 100 100 100 100 100 94 85 58 70
100 100 100 100 65 82 96 91 98 46 80 100 100 77 31 97 91 100 100 100 100 100 100 100 100 100 100 100 100 86 49 95
100 100 83 94 100 99 100 100 100 100 100 98 100 99 21 100 100 95 100 100 100 100 100 100 100 100 100 100 72 72 100 72
100 100 100 72 100 100 100 100 100 100 100 100 100 86 89 44 100 49 100 100 100 100 100 100 100 100 100 82 98 71 68 57
100 100 100 82 48 99 100 100 100 100 100 100 99 86 100 70 90 100 100 100 100 100 100 100 100 100 100 75 100 59 57 95
100 100 100 100 100 100 100 100 100 100 98 100 82 90 100 94 64 100 100 100 100 100 100 100 100 100 100 100 97 84 76 98
26 100 100 100 100 100 100 93 100 100 99 100 67 99 99 95 63 100 100 100 100 100 100 100 100 100 100 86 82 11 44 100
2 94 100 100 100 100 100 100 98 100 100 98 94 100 75 94 72 100 100 100 100 100 100 100 100 81 97 99 52 68 62 90
0 68 100 100 100 100 100 100 94 93 100 100 100 100 100 100 100 100 100 100 100 100 100 100 100 100 100 100 88 44 90 67
1 80 100 100 100 100 100 100 100 99 100 62 100 100 100 100 100 100 100 100 100 100 100 100 100 100 100 91 14 47 12 32
4 90 100 100 100 100 100 100 100 100 100 91 100 100 100 100 100 100 100 100 100 100 100 100 100 100 51 100 100 44 75 78
5 95 100 100 100 100 100 100 100 100 100 100 100 100 100 100 100 100 100 100 100 100 100 100 100 100 98 91 99 60 69 100
57 100 100 100 100 100 96 73 100 100 100 100 100 100 100 100 100 100 100 100 100 100 100 100 48 94 100 92 99 92 90 100
90 100 100 100 100 99 100 94 100 99 100 100 100 99 100 100 100 100 100 100 100 100 100 100 100 100 100 100 97 100 100 100
100 100 100 100 100 99 97 31 100 99 100 100 100 100 100 100 100 100 100 100 100 100 100 100 100 100 100 100 100 100 100 100
100 100 100 100 100 100 99 87 100 68 86 100 100 100 100 100 100 100 100 100 100 100 100 100 100 100 100 100 100 100 100 100
99 100 100 100 100 100 76 89 100 92 98 100 100 100 100 100 100 100 100 100 100 100 100 100 100 100 100 100 100 100 100 100
100 98 99 100 100 100 89 93 99 72 24 100 100 100 100 100 100 100 100 100 100 100 100 100 100 100 100 100 100 100 100 100
100 100 100 100 100 100 100 100 67 76 63 96 100 100 100 100 100 100 100 100 100 100 100 100 100 100 100 100 100 100 100 100

GFSFLT2_prec_cloud_096.txt.gz
Cloud_Cover
18 34 4 13 50 0 0 0 0 0 0 14 49 3 47 70 91 90 100 100 100 100 100 100 100 100 100 100 100 100 100 100
58 67 42 46 64 44 1 0 0 0 0 0 64 100 100 18 100 100 100 100 100 100 100 100 100 100 100 100 100 100 100 100
98 94 63 41 98 36 100 19 6 2 0 1 59 100 100 100 56 100 100 41 100 100 100 100 100 100 100 100 100 97 100 100
99 100 26 19 40 51 58 49 100 87 14 18 3 29 24 75 12 78 100 81 100 100 100 100 100 100 100 94 100 100 90 63
100 100 78 50 59 89 76 52 91 100 100 55 64 74 50 68 88 74 100 27 72 100 100 100 100 100 100 100 100 98 100 100
99 100 100 35 32 93 98 85 100 100 100 100 91 60 61 68 92 83 100 100 100 100 100 100 100 100 100 100 100 74 100 93
50 100 100 15 28 61 100 100 78 100 100 100 100 100 97 83 95 99 100 99 100 100 100 100 100 100 100 100 100 88 100 68
11 100 100 73 29 63 98 100 60 100 100 100 100 100 99 68 57 85 94 100 100 100 100 100 100 100 100 100 100 100 100 88
0 70 100 100 82 76 64 100 60 75 73 100 100 100 94 98 98 91 92 100 100 100 100 100 100 100 100 100 100 100 100 65
0 2 100 100 97 86 68 100 98 87 85 81 90 100 93 86 99 100 100 100 100 100 100 100 100 100 100 100 100 94 7 60
5 15 67 100 98 89 94 100 100 99 67 74 100 100 96 100 100 100 100 100 100 100 100 100 100 100 100 100 100 100 100 79
5 5 42 100 100 100 100 100 100 100 100 86 100 100 100 100 100 100 100 100 100 100 100 100 100 100 100 100 100 100 100 100
100 76 84 100 100 100 100 100 100 100 46 40 100 100 100 100 100 100 100 100 100 100 100 100 100 100 100 100 100 100 100 100
100 9 100 100 46 17 60 87 100 90 80 41 100 100 100 100 100 100 100 100 100 100 100 100 100 100 100 100 100 100 100 100
2 5 100 100 8 26 63 100 100 100 75 96 100 100 100 100 100 100 100 100 100 100 100 100 100 100 100 100 100 97 100 98
5 7 100 100 57 22 4 9 39 56 38 97 100 100 100 100 100 100 100 100 100 100 100 100 100 100 100 100 100 100 93 92
5 54 100 100 100 6 4 4 5 77 49 98 100 100 100 100 100 100 100 100 100 100 100 100 100 100 100 95 100 100 87 98
5 100 100 100 96 28 5 0 30 87 53 88 100 100 100 100 100 100 100 100 100 100 100 100 100 100 100 100 100 100 100 100
62 100 100 100 100 59 25 5 58 78 49 94 100 100 100 100 100 100 100 100 100 100 100 100 100 100 100 100 100 100 100 100
94 100 100 100 100 84 34 6 60 80 100 42 100 100 100 100 100 100 100 100 100 100 100 100 100 100 100 100 100 100 100 100

GFSFLT2_prec_cloud_099.txt.gz
Cloud_Cover
0 0 0 2 0 0 0 0 0 0 0 0 0 0 1 5 4 57 100 100 100 100 100 100 100 100 100 100 100 100 100 100
0 0 0 11 8 7 0 0 0 0 0 1 0 3 5 46 64 15 56 100 100 100 100 100 100 100 100 100 99 100 100 100
5 0 0 5 40 26 35 9 0 8 4 3 33 0 10 100 100 65 32 88 100 100 100 100 100 100 100 82 88 100 100 100
81 5 0 2 24 59 47 3 9 3 0 0 0 2 8 99 100 96 12 69 90 100 100 100 100 100 100 88 58 100 100 100
100 21 0 1 7 54 85 28 100 54 70 40 19 22 1 6 100 100 34 66 74 77 100 100 100 100 100 86 96 98 100 100
100 7 2 0 3 12 72 77 73 75 71 61 20 8 14 14 95 70 15 24 100 62 100 100 100 100 100 100 100 100 89 97
100 73 75 1 6 13 100 98 94 57 51 76 35 68 24 5 76 99 87 44 100 99 86 100 100 100 100 100 100 100 100 100
53 23 99 4 0 12 97 94 54 65 81 99 86 93 22 42 84 52 64 39 100 100 100 100 100 100 100 100 100 100 100 100
25 28 100 25 0 4 46 20 6 100 71 89 36 99 79 100 78 33 44 13 71 100 100 100 100 100 100 100 100 100 100 100
5 6 96 100 0 0 2 32 8 24 100 89 70 93 33 98 23 100 100 53 78 98 100 100 100 100 100 100 100 100 100 100
0 0 36 100 93 18 9 26 60 26 49 88 64 78 39 97 54 98 97 70 91 67 100 100 100 100 100 100 100 100 100 100
1 0 12 87 100 100 100 100 100 95 38 43 67 74 73 79 91 99 92 96 85 95 100 100 100 100 100 100 100 100 100 92
1 4 47 100 100 100 100 100 100 97 21 42 42 15 33 77 86 100 100 100 96 100 100 100 100 100 100 100 100 100 100 99
5 3 5 62 100 97 53 75 100 44 8 48 68 47 46 52 81 100 100 100 100 100 100 100 100 100 100 100 100 100 100 100
19 5 5 30 89 48 31 72 100 99 9 94 48 51 90 100 100 100 100 100 100 100 100 100 100 100 100 100 100 100 100 100
95 5 0 22 36 37 20 10 36 28 26 34 38 91 99 100 100 100 100 100 100 100 100 100 100 100 100 100 100 100 100 100
58 5 5 23 5 8 45 21 1 0 0 11 74 100 100 100 100 100 100 100 100 100 100 100 100 100 100 100 100 100 100 100
93 91 80 57 0 14 31 28 5 0 0 20 100 100 100 100 100 100 100 100 100 100 100 100 100 100 100 100 100 100 100 100
100 72 58 95 79 26 59 33 3 0 2 87 72 100 100 100 100 100 100 100 100 100 100 100 100 100 100 100 100 100 100 100
100 99 99 100 100 60 95 46 3 0 3 56 70 100 100 100 100 100 100 100 100 100 100 100 100 100 100 100 100 100 100 100

GFSFLT2_prec_cloud_102.txt.gz
Cloud_Cover
48 64 36 5 0 0 0 0 0 0 0 0 0 0 0 0 0 3 32 100 100 100 100 100 100 100 100 100 100 100 74 74
100 100 27 3 4 7 0 0 0 0 0 0 0 0 0 0 0 4 54 45 100 100 100 100 100 100 100 100 100 86 100 100
100 70 5 0 0 0 7 0 0 5 0 0 0 0 1 5 4 12 78 39 100 100 100 100 100 100 100 100 95 100 100 100
100 100 41 22 26 2 0 0 0 0 0 0 0 0 0 5 11 8 27 54 100 100 100 100 100 100 100 100 100 92 98 79
100 100 100 100 86 6 0 0 0 0 0 0 0 0 0 28 65 55 55 88 38 68 98 100 100 100 100 100 100 100 100 100
100 100 100 100 100 5 4 0 1 92 0 0 0 0 0 5 63 57 19 54 45 7 5 100 100 100 100 100 100 100 100 100
100 100 100 100 22 7 4 5 6 98 38 0 0 0 16 0 2 58 21 13 89 31 10 98 100 100 100 100 100 100 100 100
99 100 100 100 11 6 5 5 82 13 80 33 1 0 0 0 0 22 28 38 99 56 80 100 100 100 100 100 100 100 100 100
100 100 100 87 20 5 3 1 13 0 7 99 2 0 0 0 0 0 0 4 11 24 91 100 100 100 100 100 100 100 100 100
90 100 78 72 94 16 0 0 0 0 0 6 4 1 0 26 100 100 4 2 5 26 56 100 100 100 100 100 100 100 100 100
5 76 2 5 4 3 0 0 0 0 1 22 12 0 4 3 49 2 11 41 30 42 63 100 100 100 100 100 100 100 100 100
22 45 5 5 4 5 30 0 6 10 42 99 13 0 0 6 29 3 21 15 57 58 74 89 95 100 100 100 100 100 100 100
5 5 5 5 9 12 100 28 99 84 2 0 50 0 0 6 43 5 5 99 91 81 100 82 97 100 100 100 100 100 100 100
5 6 68 17 5 13 100 100 100 100 92 29 0 0 0 0 17 72 60 93 96 73 100 93 96 100 100 100 100 100 100 100
72 42 5 16 5 73 100 100 99 100 47 1 11 1 0 0 18 96 98 88 100 100 100 100 100 100 100 100 100 100 100 100
99 96 22 27 5 67 100 18 28 35 58 39 0 0 6 52 71 89 100 99 100 100 100 100 100 100 100 100 100 100 100 100
98 100 100 37 16 5 5 6 24 9 18 1 1 22 93 100 100 100 100 100 100 100 100 100 100 100 100 100 100 100 100 100
100 75 100 46 88 7 5 5 40 0 0 12 61 100 98 100 100 100 100 100 100 100 100 100 100 100 100 100 100 100 100 100
100 100 100 39 44 68 8 31 9 21 0 1 100 100 98 100 97 100 100 100 100 100 100 100 100 100 100 100 100 100 100 100
100 68 99 95 90 46 65 98 33 82 0 5 39 99 100 100 100 100 100 100 100 100 100 100 100 100 100 100 100 100 100 100

GFSFLT2_prec_cloud_105.txt.gz
Cloud_Cover
100 100 100 8 0 21 10 0 0 0 0 0 0 0 0 0 0 0 13 100 100 100 100 100 100 100 89 100 100 47 20 97
86 100 98 11 26 5 0 0 0 0 0 0 0 0 0 0 0 3 5 100 100 100 100 100 100 100 100 100 100 100 100 92
17 99 82 20 10 5 95 1 0 0 0 0 0 0 0 0 0 15 5 5 28 100 100 100 100 100 100 100 100 100 74 80
43 93 5 14 75 94 59 44 91 2 0 0 0 0 0 0 0 1 5 14 0 7 99 100 100 100 100 100 100 100 85 100
100 100 100 100 100 45 38 58 74 5 2 0 9 2 1 10 11 34 41 35 1 7 92 100 100 100 100 100 100 100 100 100
87 100 100 100 100 100 100 100 33 8 71 21 5 1 4 5 29 91 36 25 24 28 39 100 100 100 100 100 100 100 100 100
82 100 100 100 100 100 80 81 9 19 7 5 3 0 0 0 5 100 69 90 26 30 30 68 88 100 100 100 100 100 100 100
100 100 100 100 100 100 100 100 97 6 5 2 0 0 0 0 0 13 100 76 6 5 97 100 97 95 100 100 100 100 100 100
100 84 100 100 100 100 100 100 100 24 0 97 0 0 0 0 0 2 3 12 9 5 71 100 100 99 100 100 100 100 100 100
86 96 6 95 100 100 100 60 5 5 0 3 69 1 6 100 4 0 0 22 1 17 58 100 79 99 90 100 100 100 100 100
22 100 94 4 5 5 5 2 1 5 0 0 0 21 2 0 0 0 0 14 32 75 100 96 79 80 100 100 100 100 100 100
0 60 100 26 5 5 15 5 5 5 1 0 0 1 0 15 14 11 10 13 46 96 79 69 92 76 98 75 100 100 100 100
0 5 87 62 5 11 32 5 5 1 0 0 0 0 0 10 16 11 7 6 44 41 88 54 100 75 69 100 100 100 100 100
0 21 100 99 5 5 6 83 47 99 4 21 15 0 0 16 22 26 25 40 40 77 49 99 94 70 71 100 100 100 100 100
2 3 11 90 100 9 5 19 30 100 94 15 22 30 4 0 0 16 47 63 89 100 74 100 100 100 91 100 100 100 100 100
72 18 10 94 100 100 67 5 5 24 100 100 100 6 1 0 21 20 50 95 100 72 100 100 100 100 100 100 100 100 100 100
100 100 100 100 100 100 89 5 5 9 92 67 81 44 93 35 38 99 49 100 100 89 100 100 100 100 100 100 100 100 100 100
100 100 100 90 100 100 88 6 53 34 5 5 94 46 93 84 100 100 100 100 100 100 100 100 100 100 100 100 100 100 100 100
100 100 100 100 100 100 100 90 100 67 5 19 89 48 89 100 100 100 100 100 100 100 100 100 100 100 100 100 100 100 100 100
100 100 100 90 100 100 100 100 100 64 59 50 31 80 93 100 98 100 100 96 100 100 100 100 100 100 100 100 100 100 100 100

GFSFLT2_prec_cloud_108.txt.gz
Cloud_Cover
17 15 5 25 100 100 6 5 2 1 0 0 0 0 0 0 0 0 0 0 57 96 100 100 100 99 100 100 100 100 100 77
30 28 70 25 10 96 84 2 0 8 38 0 0 0 1 0 0 0 0 3 5 45 100 100 100 100 100 100 100 100 85 81
20 30 100 53 27 9 4 2 0 68 56 4 5 6 5 2 5 0 2 1 0 5 86 100 100 100 77 100 100 100 100 100
10 13 100 62 36 91 57 97 100 96 22 29 52 59 40 64 2 0 0 0 1 2 42 95 100 100 100 73 100 100 100 100
7 2 95 100 100 100 100 100 43 75 49 53 100 88 67 58 62 48 21 6 44 18 29 24 10 100 100 100 97 100 100 100
0 0 4 100 100 100 100 100 99 91 84 84 95 100 69 83 98 100 58 46 28 26 29 20 38 7 79 100 100 100 100 100
1 0 1 76 100 100 98 96 86 40 15 6 81 100 100 58 67 94 82 36 11 35 33 32 23 49 70 100 100 100 100 100
0 2 5 96 100 99 85 93 100 100 92 100 100 100 41 22 51 53 54 34 12 9 19 40 32 97 39 32 100 100 100 100
0 0 2 95 100 100 100 87 100 100 100 100 100 74 1 1 23 40 14 20 98 38 35 63 53 99 86 57 100 100 100 100
1 0 0 73 100 100 100 96 96 85 60 27 67 0 0 1 12 16 24 26 27 33 69 100 99 93 88 83 86 100 100 100
4 0 0 2 100 100 100 57 42 5 5 4 94 35 0 3 7 0 0 6 13 42 91 87 100 100 100 80 97 100 100 100
5 2 0 0 3 79 100 14 8 7 5 6 5 21 27 1 14 3 2 19 60 95 95 100 100 100 100 83 88 100 100 100
4 5 5 4 42 45 11 64 9 36 26 5 17 23 33 34 9 7 15 27 78 100 100 100 100 100 99 100 100 100 100 100
0 8 33 38 1 13 14 8 15 8 44 27 13 26 28 45 41 39 46 49 81 100 100 100 100 100 55 100 100 100 100 100
0 55 72 91 100 49 12 61 100 100 98 53 70 36 37 39 58 51 49 76 74 100 100 100 100 100 95 99 100 100 100 100
5 57 100 100 100 74 16 14 100 100 100 100 12 59 45 50 51 56 56 94 100 100 100 100 99 100 94 83 100 100 100 100
84 100 100 100 100 100 100 28 61 100 100 100 69 99 99 100 97 36 56 84 78 99 100 100 100 74 98 100 100 100 100 100
100 100 100 100 100 94 100 100 100 100 100 100 61 93 72 62 100 93 52 98 100 100 100 100 100 100 100 100 100 100 100 100
100 100 93 100 100 100 100 100 100 100 100 100 60 68 100 100 100 100 96 100 100 92 100 100 100 100 100 100 100 100 100 100
100 91 100 100 100 100 100 100 54 53 5 100 100 99 100 95 100 100 100 100 100 100 100 100 100 100 100 100 100 100 100 100

GFSFLT2_prec_cloud_111.txt.gz
Cloud_Cover
68 56 31 5 5 9 30 26 100 52 0 0 0 5 0 0 0 0 0 0 0 1 0 0 95 100 100 100 100 100 100 87
81 61 45 52 64 10 14 27 10 98 4 0 8 5 0 0 5 5 5 0 0 0 5 3 5 100 100 100 100 100 100 99
61 62 50 42 44 45 72 19 23 8 5 0 54 24 30 5 5 14 6 0 0 0 2 5 4 100 100 100 100 100 100 100
54 58 58 50 55 41 42 37 30 31 84 94 32 19 51 29 98 21 5 1 0 0 0 4 4 36 100 100 99 100 100 100
46 45 46 50 58 90 99 100 100 94 26 70 69 22 36 62 94 36 21 2 10 25 12 8 2 23 35 100 100 100 100 100
10 20 38 41 45 100 91 100 100 65 33 73 42 47 52 92 100 100 90 49 65 44 36 20 0 0 22 93 100 100 100 100
0 6 18 35 38 72 68 87 98 100 100 77 35 67 59 100 100 100 100 98 48 47 31 28 10 1 1 5 29 100 100 100
3 8 3 25 40 36 52 100 100 100 100 100 100 92 100 100 100 100 100 78 37 29 26 25 27 24 31 70 24 99 100 100
10 9 13 22 48 31 50 100 90 99 100 100 100 100 100 90 100 100 100 72 29 31 34 54 47 37 44 57 99 90 100 100
5 4 27 23 41 42 29 91 95 67 33 92 100 100 54 54 82 98 74 71 38 47 40 65 98 97 57 32 100 100 100 100
14 5 37 30 41 42 34 58 95 87 33 69 88 47 16 19 43 50 63 76 86 80 81 23 99 100 100 55 81 42 71 100
100 5 91 12 62 65 75 89 98 31 34 30 98 24 30 24 32 34 55 74 91 90 81 100 80 100 100 100 100 62 64 100
100 5 50 32 91 94 99 80 84 68 26 14 5 8 33 41 46 32 52 70 85 78 83 96 100 100 100 100 100 69 99 100
10 34 17 45 27 6 5 45 93 83 72 90 5 18 25 42 44 54 56 83 81 99 94 100 100 100 100 100 100 100 100 100
14 99 47 100 100 88 26 72 79 99 98 72 45 35 73 58 46 85 74 87 100 100 100 100 100 100 84 100 100 100 100 100
96 99 99 100 100 100 82 92 77 33 51 100 83 90 61 97 99 66 97 100 100 100 100 100 100 100 98 100 77 82 100 100
100 100 100 100 100 100 100 100 100 100 100 71 100 100 75 94 100 100 100 100 94 95 100 100 100 100 100 100 100 100 100 100
58 100 100 100 100 100 100 100 99 100 100 100 100 100 100 96 100 100 100 100 100 100 89 100 100 100 100 100 100 98 96 100
10 100 100 100 100 100 100 100 87 100 95 70 100 100 100 100 79 100 100 100 100 99 100 100 100 100 100 100 100 100 100 100
76 76 100 100 100 100 100 100 100 100 100 80 95 100 100 100 97 58 70 100 100 100 100 100 99 96 100 100 100 100 100 100

GFSFLT2_prec_cloud_114.txt.gz
Cloud_Cover
85 65 33 24 33 84 29 1 0 0 10 100 5 1 0 0 0 0 0 0 0 0 0 0 0 0 5 100 100 100 100 100
100 100 63 50 73 44 87 13 8 5 1 3 5 0 0 0 0 0 0 0 5 3 0 0 0 0 0 31 100 100 100 100
100 100 100 66 71 72 50 28 73 100 31 0 17 25 2 14 10 4 2 6 17 2 0 0 0 0 0 10 95 100 100 100
100 100 100 86 73 92 99 100 94 92 26 13 33 60 88 5 5 5 5 18 23 5 0 1 19 37 29 18 95 99 100 100
100 100 100 100 100 100 100 100 100 99 100 100 100 99 74 18 28 28 23 46 60 12 1 17 16 49 31 32 68 94 100 100
92 100 100 100 100 100 100 100 95 100 83 100 100 100 100 69 25 42 39 100 26 34 30 12 6 20 18 7 26 44 100 100
41 64 88 99 100 100 100 100 74 62 68 92 99 100 100 100 74 77 100 79 76 53 35 25 11 2 0 0 15 25 82 100
8 42 44 89 94 100 100 100 49 42 78 100 100 100 100 100 100 100 100 100 73 35 34 32 37 16 3 0 0 17 24 100
0 10 40 57 49 79 74 72 36 42 66 100 60 100 100 100 100 100 100 100 44 37 36 34 60 90 3 6 1 16 28 88
0 0 21 30 38 44 52 65 33 31 100 100 71 100 100 100 100 100 100 100 56 43 96 98 43 78 47 24 28 33 32 53
4 14 37 14 30 61 44 58 48 33 68 100 100 85 95 99 100 100 100 100 98 78 97 57 66 55 100 60 33 44 83 73
0 24 41 47 71 100 96 95 94 62 41 78 81 77 100 65 96 100 100 100 100 100 100 100 21 28 81 100 100 94 100 100
0 44 66 100 100 100 100 100 100 100 65 98 100 100 68 53 100 92 100 100 100 100 100 100 100 100 100 100 100 100 100 100
0 32 75 100 100 100 100 100 100 100 100 100 100 82 52 59 85 99 100 100 100 100 100 100 100 100 100 100 100 100 100 100
5 62 34 94 100 100 100 100 100 100 100 100 98 56 58 57 82 96 100 100 100 100 100 100 100 100 100 100 100 100 100 100
87 79 94 98 100 100 100 100 100 100 100 100 94 94 78 77 80 90 96 100 100 100 98 100 100 100 100 100 100 100 100 100
100 84 84 100 100 100 100 100 100 100 100 100 100 99 100 100 100 99 86 100 100 100 100 100 100 100 78 100 100 100 100 100
100 96 82 65 83 100 100 100 100 100 100 85 100 99 99 100 100 100 100 100 94 98 100 100 100 100 100 100 100 100 100 100
100 100 96 90 100 100 100 100 100 100 100 94 100 100 100 100 100 100 100 100 100 100 100 100 100 100 100 100 100 100 100 100
100 100 99 84 100 100 100 100 100 100 100 100 100 97 100 100 100 100 100 100 100 100 100 100 100 100 100 100 100 100 100 100

GFSFLT2_prec_cloud_117.txt.gz
Cloud_Cover
20 24 44 35 19 9 1 0 0 1 4 4 5 86 100 28 5 2 0 0 0 0 0 0 0 0 0 3 5 98 100 100
64 99 100 63 57 30 7 0 0 0 3 5 5 5 35 89 5 1 0 0 2 0 0 0 0 0 0 0 3 74 100 100
100 100 100 96 100 76 40 15 0 4 1 6 98 8 2 5 5 5 3 5 5 2 5 3 0 2 0 0 33 62 100 100
100 100 100 100 100 100 99 98 18 13 13 10 33 36 17 6 8 92 71 46 8 15 5 6 6 50 39 40 99 100 94 100
100 100 100 100 100 100 100 100 100 92 62 45 58 94 96 89 100 100 68 13 57 55 29 11 24 48 56 60 62 98 95 100
36 100 100 100 86 100 100 100 100 99 93 67 80 100 97 96 58 100 22 45 31 88 21 3 1 33 35 58 49 98 44 100
2 99 100 100 96 100 100 100 100 100 100 100 76 100 100 57 95 88 22 46 99 100 36 0 0 10 39 41 21 27 25 38
0 67 100 100 100 100 100 100 100 100 100 100 100 100 100 94 98 67 100 98 100 98 74 5 2 6 21 26 13 23 17 7
0 0 64 100 100 100 100 100 100 63 100 100 100 100 100 100 100 100 100 82 100 80 31 17 3 10 17 2 0 6 21 64
82 3 6 52 81 100 100 98 27 26 86 100 100 100 100 100 100 100 100 68 100 81 62 51 30 18 18 8 0 2 15 29
5 5 37 10 22 51 32 42 8 16 48 100 100 100 100 100 100 100 100 100 100 100 100 45 76 37 24 35 47 31 35 41
2 5 5 68 5 75 46 71 25 20 8 32 100 100 100 100 100 100 100 100 100 100 100 94 41 34 63 100 97 86 81 95
0 13 30 90 38 61 100 100 100 99 75 45 100 100 100 100 100 100 100 100 100 100 100 100 100 90 92 89 100 100 100 100
20 61 53 66 82 15 52 45 76 95 84 100 100 80 100 100 100 100 100 100 100 100 100 100 100 82 94 100 98 99 100 100
88 100 81 64 99 96 98 87 95 100 100 100 100 46 84 97 100 100 100 100 100 100 100 100 100 100 100 100 100 100 100 100
5 100 100 100 100 76 100 100 100 100 100 100 100 100 95 97 100 100 100 100 100 100 100 100 100 99 100 100 91 81 86 100
100 100 100 100 100 100 100 100 100 100 100 100 100 100 100 100 100 100 100 100 100 100 100 100 100 100 79 92 100 42 84 55
100 100 100 100 100 100 100 100 100 100 100 100 100 100 100 100 100 100 100 100 100 99 96 100 100 95 78 100 100 91 98 96
100 100 100 100 100 100 100 100 100 100 99 100 100 100 100 100 100 100 100 100 100 100 100 100 100 100 100 100 100 100 100 88
100 100 100 100 100 100 100 100 100 100 100 100 100 100 100 100 100 100 100 100 100 100 100 100 100 100 100 100 100 100 38 40

GFSFLT2_prec_cloud_120.txt.gz
Cloud_Cover
0 0 3 44 0 0 0 0 0 0 0 0 0 0 0 5 100 100 98 5 4 0 0 0 0 0 0 0 4 5 25 100
8 11 3 0 1 8 0 0 0 0 0 0 0 6 0 5 13 100 100 6 5 5 0 0 3 3 0 0 4 10 75 100
16 35 35 0 0 4 53 23 1 9 12 9 68 1 1 5 4 6 99 83 5 5 5 13 11 11 0 15 16 15 31 100
7 55 100 65 61 12 13 3 0 3 3 10 2 30 53 42 5 5 15 8 13 66 5 6 46 9 36 47 24 44 44 100
12 94 100 100 4 97 33 21 0 41 85 100 93 69 56 73 73 34 15 94 100 59 71 17 8 93 100 70 59 17 36 37
98 69 87 100 0 0 0 98 38 60 99 100 100 99 78 97 100 100 100 100 95 68 100 67 49 53 86 93 47 42 32 32
5 5 6 94 2 4 1 73 100 100 100 100 100 100 69 99 94 100 100 100 100 89 100 100 12 38 87 98 95 48 31 24
24 26 5 37 4 12 24 79 100 100 100 100 87 94 60 62 96 100 100 100 100 93 100 100 13 23 44 72 100 93 49 42
100 100 72 17 8 76 19 86 100 100 100 100 100 100 100 16 60 55 100 100 100 100 100 98 58 32 33 67 76 80 61 60
100 100 100 92 59 100 71 5 100 44 62 100 100 100 100 100 100 99 70 100 100 100 100 100 78 68 25 33 45 85 98 68
100 100 100 99 44 100 59 1 11 0 0 94 100 100 100 100 100 100 100 100 100 100 100 100 100 100 82 65 66 67 99 100
100 100 100 100 100 84 100 86 0 0 0 4 100 100 100 100 100 100 100 100 100 100 100 97 100 100 100 96 86 62 81 69
4 56 100 100 100 56 100 100 5 0 0 0 17 100 100 100 100 100 100 100 88 100 100 100 100 100 100 97 100 91 63 100
0 4 5 99 100 100 89 5 0 0 0 1 5 92 100 100 100 100 100 100 100 100 98 100 100 100 99 100 92 62 83 79
0 2 5 28 100 99 82 12 0 3 5 6 6 47 100 100 100 100 100 100 100 100 90 100 100 100 100 49 65 24 11 49
9 70 29 17 97 98 90 7 3 52 6 12 20 88 16 100 100 100 100 100 100 100 100 100 100 100 100 72 55 44 43 59
98 100 100 100 100 98 14 58 8 42 34 99 82 100 36 100 100 100 100 100 100 100 98 100 100 100 100 81 96 58 68 49
100 100 100 100 100 100 99 100 100 100 100 100 100 100 88 100 100 100 100 100 100 100 100 100 100 100 100 100 100 100 69 94
100 100 100 100 100 100 100 100 100 100 100 100 100 100 100 100 97 100 100 100 100 100 100 100 100 100 100 100 81 70 48 100
100 100 100 100 100 100 100 100 100 100 100 100 100 100 100 100 100 100 100 100 100 100 100 100 98 100 100 100 80 34 100 100

GFSFLT2_prec_cloud_123.txt.gz
Cloud_Cover
18 28 22 44 0 0 0 0 0 0 0 0 0 0 0 5 0 3 3 97 41 5 3 0 0 0 0 0 0 4 55 100
16 78 35 13 1 7 0 0 0 0 0 0 0 6 0 2 1 2 1 0 56 5 4 0 0 0 0 0 0 0 5 84
62 47 30 17 13 15 53 20 1 9 9 4 68 0 0 5 1 5 5 16 5 5 13 6 8 14 5 1 11 2 20 44
99 99 77 57 3 2 13 4 0 0 0 0 0 2 43 58 9 66 94 12 5 4 5 11 49 6 11 47 1 65 16 34
100 100 100 100 77 6 5 1 0 12 20 52 5 19 59 100 6 76 16 16 88 81 32 100 59 92 100 24 60 65 52 17
36 99 100 100 76 68 100 28 0 1 1 70 9 1 10 5 81 92 16 100 69 100 100 99 64 100 100 66 83 99 89 3
100 100 100 100 100 98 91 85 29 0 19 69 0 29 18 57 74 81 95 86 82 15 95 100 100 100 100 99 84 89 100 63
100 76 100 100 100 81 5 5 2 0 0 100 10 16 35 1 17 35 73 98 100 100 93 100 100 100 100 96 91 99 100 99
100 72 100 100 100 100 40 5 13 99 97 100 33 9 73 17 28 27 47 98 100 100 100 100 100 100 100 99 100 43 100 100
100 100 100 100 100 100 100 100 58 84 96 30 100 99 87 5 26 100 75 100 100 100 59 99 100 100 100 100 100 100 100 100
100 100 100 100 100 100 100 100 100 100 5 54 100 100 100 73 5 4 61 97 96 78 99 100 100 100 100 100 100 100 100 100
6 100 100 100 100 100 100 100 100 99 22 5 43 100 100 100 89 89 40 100 100 86 100 100 100 98 100 100 100 100 100 100
1 9 81 100 100 100 100 100 100 100 100 78 20 29 100 100 100 100 100 100 100 100 49 96 100 100 88 41 100 19 8 22
0 0 0 0 82 99 99 100 100 100 100 66 5 70 90 100 100 100 100 100 100 100 100 90 100 100 68 93 98 12 14 58
0 0 0 0 0 100 20 100 97 100 100 74 99 23 59 100 100 100 100 100 100 100 100 100 100 100 100 99 92 6 11 16
1 2 0 0 0 47 98 98 5 68 100 88 8 5 94 100 100 100 100 100 100 100 100 100 100 62 100 100 48 5 19 50
100 97 100 70 64 44 92 84 55 5 5 5 1 1 34 96 100 100 100 100 100 100 100 100 100 46 100 100 85 14 15 5
100 100 100 100 100 21 61 33 100 90 64 100 98 54 46 60 96 100 100 100 100 100 100 100 100 72 100 100 95 100 100 97
100 100 100 100 100 100 83 77 100 100 100 100 100 100 100 100 100 87 100 100 100 100 100 100 100 100 100 100 78 95 100 100
100 100 100 100 100 100 100 100 100 100 100 100 100 100 100 100 100 100 100 89 100 100 100 100 100 100 100 99 38 98 100 100

GFSFLT2_prec_cloud_126.txt.gz
Cloud_Cover
71 49 29 41 0 0 0 0 0 0 0 0 0 0 0 0 0 0 3 9 2 2 5 63 8 5 1 0 0 0 24 95
72 21 5 5 4 8 8 5 4 0 0 0 0 4 0 0 0 1 0 0 0 0 0 3 2 5 3 0 0 0 0 0
5 86 66 9 10 1 6 4 1 12 4 2 67 0 0 2 0 0 0 1 0 51 18 2 0 11 4 0 11 0 0 0
1 5 94 8 62 29 49 97 100 99 9 4 0 0 0 0 3 0 0 1 21 35 5 6 63 0 26 55 1 0 3 1
13 5 2 60 100 100 100 100 100 99 50 6 17 2 0 0 0 4 2 10 6 22 75 100 85 92 95 1 0 80 2 2
100 90 70 92 100 100 80 75 72 59 37 36 41 6 4 37 29 0 5 5 0 0 43 99 6 89 49 69 89 100 71 11
100 100 100 100 100 100 39 76 33 63 100 95 21 48 5 5 5 4 5 9 3 0 0 3 9 63 66 100 88 13 100 68
100 100 100 100 100 93 87 50 40 100 51 1 5 2 21 5 5 5 34 14 14 4 0 12 0 77 55 100 84 100 100 21
100 100 100 100 100 100 98 100 41 5 98 4 0 0 0 4 5 5 5 9 5 5 16 37 100 100 100 100 100 100 100 100
100 100 100 100 100 100 100 97 99 24 5 14 0 0 0 5 5 11 34 7 5 5 64 65 100 99 100 100 100 100 100 100
1 7 85 93 89 100 100 98 91 96 52 9 5 0 0 0 5 5 58 14 6 18 74 38 4 88 100 100 100 100 100 100
0 0 3 55 26 92 100 98 99 100 100 100 28 5 0 0 1 23 5 40 18 93 13 6 17 5 16 95 100 100 100 100
0 0 0 0 59 14 100 100 18 100 100 100 100 99 9 87 5 21 8 67 5 5 0 10 5 19 11 37 99 100 100 56
0 0 0 0 0 5 3 58 94 100 100 100 100 100 100 99 99 73 21 8 40 35 48 47 7 16 5 8 60 11 5 63
29 0 0 0 0 0 15 3 11 87 100 100 100 100 100 100 100 100 96 87 99 98 100 100 27 5 22 9 17 96 5 11
5 98 0 0 0 0 0 5 100 56 100 100 100 100 100 100 100 100 100 100 100 100 100 100 100 5 66 5 5 53 5 34
99 83 16 4 3 3 65 13 76 100 96 100 94 100 99 98 39 100 100 100 100 100 100 100 100 57 8 83 10 5 11 31
96 100 100 100 100 98 34 36 22 100 86 100 8 70 99 98 100 100 100 100 100 100 100 100 100 100 37 54 16 89 24 5
100 100 100 100 100 100 100 70 100 100 100 100 79 100 100 100 100 100 100 100 100 100 100 100 100 100 99 81 90 94 5 5
100 100 100 100 100 100 100 98 100 100 100 100 92 98 100 100 100 100 100 100 100 100 100 100 100 100 100 100 100 100 21 90